DW8690 Weather Reports


Display with metric or nautical units.
time (UTC)temp
F
wind
direction
speed
MPH
gust
MPH
rain 1hr
in
rain 24hr
in
rain mn
in
humidity
%
barometer
mb
20260906042104 67 151 2.0 7.0 0.00 0.00 0.00 25 1010.9
20260906042004 67 198 2.0 10.0 0.00 0.00 0.00 24 1010.8
20260906041903 67 213 1.0 12.0 0.00 0.00 0.00 24 1010.9
20260906041803 67 220 1.0 12.0 0.00 0.00 0.00 24 1010.8
20260906041704 67 225 2.0 12.0 0.00 0.00 0.00 23 1010.9
20260906041604 67 227 2.0 14.0 0.00 0.00 0.00 23 1011.0
20260906041504 67 228 2.0 14.0 0.00 0.00 0.00 24 1011.0
20260906041403 67 230 2.0 14.0 0.00 0.00 0.00 23 1010.8
20260906041304 67 227 4.0 14.0 0.00 0.00 0.00 23 1010.8
20260906041204 68 225 2.0 14.0 0.00 0.00 0.00 23 1010.8
20260906041103 68 225 5.0 14.0 0.00 0.00 0.00 23 1010.8
20260906040904 68 225 8.0 14.0 0.00 0.00 0.00 23 1010.7
20260906040803 68 225 6.0 18.0 0.00 0.00 0.00 23 1010.7
20260906040704 68 225 9.0 18.0 0.00 0.00 0.00 23 1010.6
20260906040604 68 225 9.0 18.0 0.00 0.00 0.00 23 1010.6
20260906040504 68 232 9.0 18.0 0.00 0.00 0.00 23 1010.7
20260906040403 68 232 9.0 18.0 0.00 0.00 0.00 23 1010.5
20260906040303 68 230 9.0 18.0 0.00 0.00 0.00 23 1010.5
20260906040203 68 227 9.0 18.0 0.00 0.00 0.00 23 1010.5
20260906040104 68 223 9.0 18.0 0.00 0.00 0.00 23 1010.5
20260906040004 68 223 7.0 18.0 0.00 0.00 0.00 23 1010.5
20260906035903 68 223 11.0 18.0 0.00 0.00 0.00 23 1010.3
20260906035804 67 223 11.0 18.0 0.00 0.00 0.00 24 1010.3
20260906035704 67 223 7.0 15.0 0.00 0.00 0.00 23 1010.3
20260906035603 67 226 7.0 15.0 0.00 0.00 0.00 24 1010.4
20260906035504 67 217 8.0 13.0 0.00 0.00 0.00 23 1010.4
20260906035306 67 220 5.0 15.0 0.00 0.00 0.00 23 1010.5
20260906035204 67 220 8.0 15.0 0.00 0.00 0.00 23 1010.4
20260906035104 67 225 6.0 15.0 0.00 0.00 0.00 23 1010.4
20260906035003 67 225 8.0 15.0 0.00 0.00 0.00 24 1010.4
20260906034804 67 225 7.0 15.0 0.00 0.00 0.00 24 1010.3
20260906034704 67 225 7.0 15.0 0.00 0.00 0.00 24 1010.3
20260906034603 67 228 8.0 17.0 0.00 0.00 0.00 24 1010.3
20260906034503 67 228 7.0 17.0 0.00 0.00 0.00 24 1010.4
20260906034404 67 228 8.0 17.0 0.00 0.00 0.00 24 1010.3
20260906034304 67 228 9.0 17.0 0.00 0.00 0.00 24 1010.3
20260906034203 67 231 9.0 17.0 0.00 0.00 0.00 24 1010.4
20260906034103 68 236 8.0 17.0 0.00 0.00 0.00 24 1010.4
20260906034004 68 236 7.0 17.0 0.00 0.00 0.00 24 1010.4
20260906033904 68 235 10.0 17.0 0.00 0.00 0.00 24 1010.3
20260906033703 68 236 9.0 17.0 0.00 0.00 0.00 24 1010.4
20260906033604 68 232 9.0 15.0 0.00 0.00 0.00 23 1010.3
20260906033504 68 232 8.0 15.0 0.00 0.00 0.00 23 1010.4
20260906033403 68 232 8.0 15.0 0.00 0.00 0.00 23 1010.3
20260906033204 68 228 10.0 15.0 0.00 0.00 0.00 23 1010.4
20260906033104 68 226 11.0 15.0 0.00 0.00 0.00 23 1010.3
20260906033003 68 232 10.0 14.0 0.00 0.00 0.00 23 1010.3
20260906032903 67 239 9.0 14.0 0.00 0.00 0.00 23 1010.3
20260906032804 67 249 6.0 14.0 0.00 0.00 0.00 23 1010.3
20260906032703 67 248 6.0 14.0 0.00 0.00 0.00 23 1010.2
20260906032603 67 243 7.0 14.0 0.00 0.00 0.00 23 1010.2
20260906032503 67 244 7.0 14.0 0.00 0.00 0.00 23 1010.3
20260906032404 68 242 8.0 13.0 0.00 0.00 0.00 23 1010.3
20260906032306 68 245 4.0 17.0 0.00 0.00 0.00 23 1010.2
20260906032203 68 244 6.0 17.0 0.00 0.00 0.00 23 1010.3
20260906032104 68 241 6.0 17.0 0.00 0.00 0.00 23 1010.3
20260906032004 68 233 7.0 17.0 0.00 0.00 0.00 22 1010.3
20260906031904 68 227 8.0 17.0 0.00 0.00 0.00 22 1010.1
20260906031804 68 219 8.0 17.0 0.00 0.00 0.00 22 1010.2
20260906031703 68 216 7.0 17.0 0.00 0.00 0.00 22 1010.2
20260906031603 68 216 6.0 17.0 0.00 0.00 0.00 22 1010.3
20260906031504 68 216 7.0 17.0 0.00 0.00 0.00 21 1010.2
20260906031404 68 217 8.0 17.0 0.00 0.00 0.00 21 1010.2
20260906031303 68 219 9.0 17.0 0.00 0.00 0.00 21 1010.2
20260906031203 68 219 8.0 11.0 0.00 0.00 0.00 21 1010.2
20260906031104 68 219 7.0 11.0 0.00 0.00 0.00 21 1010.2
20260906031004 68 219 6.0 11.0 0.00 0.00 0.00 21 1010.0
20260906030903 68 219 7.0 12.0 0.00 0.00 0.00 21 1010.0
20260906030803 69 219 8.0 12.0 0.00 0.00 0.00 20 1010.1
20260906030703 69 222 8.0 13.0 0.00 0.00 0.00 19 1010.1
20260906030604 69 222 8.0 14.0 0.00 0.00 0.00 19 1010.1
20260906030504 69 222 8.0 14.0 0.00 0.00 0.00 19 1010.1
20260906030404 69 224 8.0 14.0 0.00 0.00 0.00 19 1010.2
20260906030303 69 228 8.0 14.0 0.00 0.00 0.00 19 1010.1
20260906030204 69 230 8.0 14.0 0.00 0.00 0.00 19 1010.1
20260906030104 69 231 8.0 14.0 0.00 0.00 0.00 19 1010.0
20260906030004 69 231 8.0 14.0 0.00 0.00 0.00 19 1009.9
20260906025904 69 231 8.0 14.0 0.00 0.00 0.00 19 1010.1
20260906025804 69 234 6.0 14.0 0.00 0.00 0.00 19 1010.0
20260906025704 69 235 8.0 14.0 0.00 0.00 0.00 19 1010.0
20260906025604 69 235 8.0 12.0 0.00 0.00 0.00 19 1010.1
20260906025503 69 235 7.0 11.0 0.00 0.00 0.00 19 1009.9
20260906025404 69 234 6.0 11.0 0.00 0.00 0.00 19 1010.0
20260906025306 69 232 5.0 11.0 0.00 0.00 0.00 19 1010.0
20260906025203 68 232 8.0 11.0 0.00 0.00 0.00 20 1010.0
20260906025104 68 235 8.0 11.0 0.00 0.00 0.00 20 1010.0
20260906025004 68 237 8.0 11.0 0.00 0.00 0.00 20 1010.0
20260906024903 68 238 8.0 11.0 0.00 0.00 0.00 20 1010.0
20260906024803 68 238 8.0 11.0 0.00 0.00 0.00 20 1009.9
20260906024703 68 242 8.0 11.0 0.00 0.00 0.00 20 1010.0
20260906024604 68 244 8.0 11.0 0.00 0.00 0.00 20 1009.9
20260906024104 68 260 4.0 8.0 0.00 0.00 0.00 19 1009.9
20260906024003 68 269 4.0 8.0 0.00 0.00 0.00 19 1009.9
20260906023904 68 273 4.0 8.0 0.00 0.00 0.00 19 1010.0
20260906023804 68 279 5.0 8.0 0.00 0.00 0.00 19 1010.0
20260906023703 68 285 5.0 8.0 0.00 0.00 0.00 19 1010.0
20260906023603 69 287 4.0 8.0 0.00 0.00 0.00 19 1009.9
20260906023504 69 281 3.0 8.0 0.00 0.00 0.00 19 1010.1
20260906023203 69 259 4.0 8.0 0.00 0.00 0.00 18 1009.9
20260906023104 69 265 3.0 8.0 0.00 0.00 0.00 18 1010.0
20260906023004 69 254 3.0 8.0 0.00 0.00 0.00 18 1010.1
20260906022903 69 248 3.0 8.0 0.00 0.00 0.00 18 1009.9
20260906022803 69 244 3.0 8.0 0.00 0.00 0.00 18 1010.1
20260906022704 69 237 4.0 8.0 0.00 0.00 0.00 17 1010.0
20260906022603 69 233 4.0 8.0 0.00 0.00 0.00 17 1010.1
20260906022503 70 229 4.0 8.0 0.00 0.00 0.00 17 1010.0
20260906022404 70 230 4.0 9.0 0.00 0.00 0.00 17 1010.0
20260906022306 70 238 5.0 9.0 0.00 0.00 0.00 17 1010.0
20260906022203 70 242 5.0 9.0 0.00 0.00 0.00 17 1010.1
20260906022104 70 238 5.0 9.0 0.00 0.00 0.00 17 1010.1
20260906022004 71 242 4.0 9.0 0.00 0.00 0.00 16 1010.1
20260906021904 71 249 4.0 9.0 0.00 0.00 0.00 15 1010.1
20260906021804 71 250 4.0 9.0 0.00 0.00 0.00 15 1010.1
20260906021704 71 251 4.0 9.0 0.00 0.00 0.00 15 1010.2
20260906021604 71 250 4.0 9.0 0.00 0.00 0.00 14 1010.1
20260906021504 71 250 4.0 10.0 0.00 0.00 0.00 14 1010.2
20260906021403 71 247 4.0 10.0 0.00 0.00 0.00 14 1010.1
20260906021304 71 237 4.0 11.0 0.00 0.00 0.00 14 1010.1
20260906021204 71 239 4.0 11.0 0.00 0.00 0.00 14 1010.2
20260906020503 72 227 8.0 11.0 0.00 0.00 0.00 13 1010.0
20260906020404 72 227 5.0 11.0 0.00 0.00 0.00 13 1010.1
20260906020304 72 227 6.0 11.0 0.00 0.00 0.00 13 1010.1
20260906020203 72 227 4.0 10.0 0.00 0.00 0.00 13 1010.1
20260906020004 73 227 4.0 10.0 0.00 0.00 0.00 12 1010.2
20260906015904 73 235 5.0 10.0 0.00 0.00 0.00 12 1010.2
20260906015803 73 245 6.0 10.0 0.00 0.00 0.00 11 1010.1
20260906015703 73 246 4.0 12.0 0.00 0.00 0.00 11 1010.1
20260906015603 74 252 4.0 12.0 0.00 0.00 0.00 11 1010.1
20260906015404 74 265 5.0 12.0 0.00 0.00 0.00 11 1010.1
20260906015306 74 274 4.0 12.0 0.00 0.00 0.00 11 1010.1
20260906015204 75 278 7.0 12.0 0.00 0.00 0.00 10 1010.2
20260906015104 75 283 5.0 12.0 0.00 0.00 0.00 10 1010.2
20260906015004 75 284 6.0 12.0 0.00 0.00 0.00 10 1010.2
20260906014904 75 280 8.0 12.0 0.00 0.00 0.00 10 1010.2
20260906014804 76 265 8.0 12.0 0.00 0.00 0.00 10 1010.2
20260906014703 76 269 5.0 12.0 0.00 0.00 0.00 10 1010.2
20260906014604 76 265 8.0 12.0 0.00 0.00 0.00 10 1010.2
20260906014503 76 254 8.0 12.0 0.00 0.00 0.00 10 1010.2
20260906014403 76 255 7.0 13.0 0.00 0.00 0.00 10 1010.1
20260906013803 77 235 7.0 13.0 0.00 0.00 0.00 10 1010.0
20260906013704 77 235 6.0 13.0 0.00 0.00 0.00 10 1010.1
20260906013603 77 233 6.0 13.0 0.00 0.00 0.00 10 1010.1
20260906013503 77 233 6.0 13.0 0.00 0.00 0.00 10 1010.0
20260906013403 77 229 8.0 13.0 0.00 0.00 0.00 10 1010.0
20260906013304 77 233 8.0 13.0 0.00 0.00 0.00 10 1010.1
20260906013204 77 239 7.0 13.0 0.00 0.00 0.00 10 1010.1
20260906013103 77 235 9.0 13.0 0.00 0.00 0.00 10 1010.2
20260906013003 77 235 9.0 13.0 0.00 0.00 0.00 10 1010.1
20260906012904 77 235 7.0 15.0 0.00 0.00 0.00 10 1010.0
20260906012803 77 238 8.0 15.0 0.00 0.00 0.00 10 1010.0
20260906012703 77 241 6.0 15.0 0.00 0.00 0.00 10 1010.1
20260906012604 77 241 4.0 15.0 0.00 0.00 0.00 10 1010.1
20260906012504 77 241 6.0 15.0 0.00 0.00 0.00 10 1010.2
20260906012403 77 240 5.0 15.0 0.00 0.00 0.00 10 1010.1
20260906012306 77 237 6.0 15.0 0.00 0.00 0.00 10 1010.1
20260906012203 77 233 7.0 16.0 0.00 0.00 0.00 10 1010.2
20260906012103 77 231 8.0 16.0 0.00 0.00 0.00 10 1010.2
20260906012004 77 235 11.0 17.0 0.00 0.00 0.00 10 1010.2
20260906011904 77 240 9.0 17.0 0.00 0.00 0.00 10 1010.2
20260906011803 77 247 9.0 17.0 0.00 0.00 0.00 10 1010.2
20260906011703 78 251 8.0 17.0 0.00 0.00 0.00 10 1010.1
20260906011604 78 248 8.0 17.0 0.00 0.00 0.00 10 1010.1
20260906011503 78 247 8.0 17.0 0.00 0.00 0.00 10 1010.1
20260906011403 78 247 8.0 17.0 0.00 0.00 0.00 10 1010.1
20260906011303 78 248 8.0 17.0 0.00 0.00 0.00 10 1010.0
20260906010803 78 227 10.0 17.0 0.00 0.00 0.00 10 1009.9
20260906010704 78 223 11.0 17.0 0.00 0.00 0.00 10 1010.0
20260906010603 78 224 8.0 15.0 0.00 0.00 0.00 10 1009.9
20260906010503 78 225 7.0 15.0 0.00 0.00 0.00 10 1010.1
20260906010403 78 225 8.0 15.0 0.00 0.00 0.00 10 1010.0
20260906010204 78 225 11.0 15.0 0.00 0.00 0.00 10 1010.0
20260906010103 78 225 8.0 15.0 0.00 0.00 0.00 10 1010.1
20260906010004 78 222 8.0 17.0 0.00 0.00 0.00 10 1010.1
20260906005904 78 226 10.0 17.0 0.00 0.00 0.00 10 1010.1
20260906005803 78 225 11.0 17.0 0.00 0.00 0.00 10 1010.0
20260906005704 78 230 8.0 17.0 0.00 0.00 0.00 10 1010.1
20260906005603 78 236 8.0 17.0 0.00 0.00 0.00 10 1010.0
20260906005503 78 235 9.0 17.0 0.00 0.00 0.00 10 1010.0
20260906005404 78 231 8.0 17.0 0.00 0.00 0.00 10 1010.0
20260906005306 78 231 11.0 17.0 0.00 0.00 0.00 10 1010.0
20260906005203 78 231 7.0 17.0 0.00 0.00 0.00 10 1010.1
20260906005103 79 234 9.0 17.0 0.00 0.00 0.00 10 1010.0
20260906005004 79 239 11.0 21.0 0.00 0.00 0.00 10 1010.0
20260906004904 79 240 11.0 21.0 0.00 0.00 0.00 10 1010.0
20260906004803 78 238 10.0 22.0 0.00 0.00 0.00 10 1010.1
20260906004703 78 232 9.0 22.0 0.00 0.00 0.00 10 1010.0
20260906004604 79 228 10.0 22.0 0.00 0.00 0.00 10 1010.2
20260906004504 79 232 10.0 22.0 0.00 0.00 0.00 10 1010.1
20260906004403 79 244 11.0 22.0 0.00 0.00 0.00 10 1010.1
20260906004304 79 248 11.0 22.0 0.00 0.00 0.00 10 1010.1
20260906004203 79 249 12.0 22.0 0.00 0.00 0.00 10 1010.1
20260906004103 79 246 10.0 22.0 0.00 0.00 0.00 10 1010.1
20260906004004 79 252 8.0 22.0 0.00 0.00 0.00 10 1010.1
20260906003904 79 249 10.0 22.0 0.00 0.00 0.00 10 1010.1
20260906003803 79 252 13.0 22.0 0.00 0.00 0.00 10 1010.1
20260906003704 79 254 12.0 20.0 0.00 0.00 0.00 10 1010.0
20260906003603 79 252 8.0 21.0 0.00 0.00 0.00 10 1010.0
20260906003203 79 240 11.0 21.0 0.00 0.00 0.00 10 1009.9
20260906003103 79 240 9.0 21.0 0.00 0.00 0.00 10 1009.9
20260906003004 79 236 9.0 21.0 0.00 0.00 0.00 10 1010.0
20260906002904 79 232 6.0 21.0 0.00 0.00 0.00 10 1010.0
20260906002803 80 234 11.0 21.0 0.00 0.00 0.00 10 1010.1
20260906002703 80 239 17.0 21.0 0.00 0.00 0.00 10 1009.9
20260906002603 80 244 13.0 18.0 0.00 0.00 0.00 10 1009.8
20260906002503 80 245 10.0 18.0 0.00 0.00 0.00 10 1009.9
20260906002403 80 248 8.0 18.0 0.00 0.00 0.00 10 1010.0
20260906002306 80 242 8.0 18.0 0.00 0.00 0.00 10 1010.0
20260906002204 80 246 9.0 18.0 0.00 0.00 0.00 10 1010.0
20260906002103 80 256 7.0 18.0 0.00 0.00 0.00 10 1009.9
20260906002004 80 256 11.0 20.0 0.00 0.00 0.00 10 1009.9
20260906001903 80 264 8.0 20.0 0.00 0.00 0.00 10 1009.8
20260906001303 81 263 8.0 20.0 0.00 0.00 0.00 10 1009.8
20260906001203 81 259 11.0 20.0 0.00 0.00 0.00 10 1009.8
20260906001104 81 250 15.0 20.0 0.00 0.00 0.00 10 1009.8
20260906001003 81 250 10.0 18.0 0.00 0.00 0.00 10 1009.7
20260906000903 81 243 9.0 18.0 0.00 0.00 0.00 10 1009.7
20260906000804 81 232 10.0 18.0 0.00 0.00 0.00 10 1009.7
20260906000704 81 238 7.0 18.0 0.00 0.00 0.00 10 1009.7
20260906000603 81 239 10.0 18.0 0.00 0.00 0.00 10 1009.8
20260906000503 81 239 14.0 18.0 0.00 0.00 0.00 10 1009.6
20260906000403 81 239 9.0 18.0 0.00 0.00 0.00 10 1009.7
20260906000304 81 239 9.0 18.0 0.00 0.00 0.00 10 1009.7
20260906000204 81 235 9.0 18.0 0.00 0.00 0.00 10 1009.7
20260906000004 81 242 7.0 18.0 0.00 0.00 0.00 10 1009.6
20260905235904 81 245 6.0 18.0 0.00 0.00 0.00 10 1009.7
20260905235803 81 254 9.0 18.0 0.00 0.00 0.00 10 1009.7
20260905235703 81 252 10.0 18.0 0.00 0.00 0.00 10 1009.8
20260905235604 81 248 11.0 18.0 0.00 0.00 0.00 10 1009.6
20260905235005 81 224 8.0 20.0 0.00 0.00 0.00 10 1009.7
20260905234904 81 221 9.0 20.0 0.00 0.00 0.00 10 1009.6
20260905234804 82 219 11.0 20.0 0.00 0.00 0.00 10 1009.6
20260905234705 82 222 11.0 20.0 0.00 0.00 0.00 10 1009.5
20260905234605 82 223 8.0 20.0 0.00 0.00 0.00 10 1009.5
20260905234405 82 230 9.0 20.0 0.00 0.00 0.00 10 1009.6
20260905234305 82 234 11.0 20.0 0.00 0.00 0.00 10 1009.4
20260905234205 82 238 9.0 20.0 0.00 0.00 0.00 10 1009.6
20260905234104 82 247 15.0 20.0 0.00 0.00 0.00 10 1009.5
20260905234005 82 247 4.0 17.0 0.00 0.00 0.00 10 1009.5
20260905233905 82 246 7.0 17.0 0.00 0.00 0.00 10 1009.6
20260905233805 82 244 8.0 17.0 0.00 0.00 0.00 10 1009.5
20260905233705 82 246 8.0 17.0 0.00 0.00 0.00 10 1009.6
20260905233605 82 245 10.0 17.0 0.00 0.00 0.00 10 1009.6
20260905233505 82 238 12.0 17.0 0.00 0.00 0.00 10 1009.6
20260905233405 82 239 12.0 17.0 0.00 0.00 0.00 10 1009.8
20260905233304 82 239 10.0 17.0 0.00 0.00 0.00 10 1009.6
20260905232705 82 225 8.0 14.0 0.00 0.00 0.00 10 1009.6
20260905232605 82 228 9.0 14.0 0.00 0.00 0.00 10 1009.4
20260905232505 82 233 6.0 12.0 0.00 0.00 0.00 10 1009.6
20260905232404 82 238 4.0 12.0 0.00 0.00 0.00 10 1009.6
20260905232306 82 241 3.0 12.0 0.00 0.00 0.00 10 1009.6
20260905232205 82 244 7.0 12.0 0.00 0.00 0.00 10 1009.6
20260905232105 82 240 8.0 12.0 0.00 0.00 0.00 10 1009.6
20260905232004 82 240 8.0 12.0 0.00 0.00 0.00 10 1009.6
20260905231904 82 240 8.0 12.0 0.00 0.00 0.00 10 1009.6
20260905231805 82 249 5.0 11.0 0.00 0.00 0.00 10 1009.6
20260905231705 82 252 6.0 11.0 0.00 0.00 0.00 10 1009.7
20260905231605 82 253 8.0 11.0 0.00 0.00 0.00 10 1009.7
20260905231504 82 250 8.0 11.0 0.00 0.00 0.00 10 1009.5
20260905231405 82 251 5.0 11.0 0.00 0.00 0.00 10 1009.5
20260905231305 82 250 3.0 11.0 0.00 0.00 0.00 10 1009.6
20260905231205 82 240 2.0 11.0 0.00 0.00 0.00 10 1009.7
20260905231104 82 240 3.0 11.0 0.00 0.00 0.00 10 1009.6
20260905231005 82 242 8.0 11.0 0.00 0.00 0.00 10 1009.5
20260905230905 82 244 4.0 9.0 0.00 0.00 0.00 10 1009.5
20260905230805 82 229 3.0 9.0 0.00 0.00 0.00 10 1009.7
20260905230705 82 226 6.0 9.0 0.00 0.00 0.00 10 1009.6
20260905230605 82 181 4.0 8.0 0.00 0.00 0.00 10 1009.7
20260905230504 82 124 4.0 8.0 0.00 0.00 0.00 10 1009.7
20260905230405 82 100 2.0 7.0 0.00 0.00 0.00 10 1009.7
20260905230305 82 88 1.0 7.0 0.00 0.00 0.00 10 1009.7
20260905230204 81 44 1.0 7.0 0.00 0.00 0.00 10 1009.7
20260905230105 81 39 2.0 8.0 0.00 0.00 0.00 10 1009.7
20260905230005 81 23 4.0 8.0 0.00 0.00 0.00 10 1009.8
20260905225904 81 4 2.0 8.0 0.00 0.00 0.00 10 1009.8
20260905225805 81 352 1.0 8.0 0.00 0.00 0.00 10 1009.8
20260905225705 81 341 2.0 8.0 0.00 0.00 0.00 10 1009.8
20260905225605 81 330 2.0 8.0 0.00 0.00 0.00 10 1009.8
20260905225505 81 319 4.0 8.0 0.00 0.00 0.00 10 1009.9
20260905225405 81 309 2.0 8.0 0.00 0.00 0.00 10 1009.9
20260905225306 81 304 2.0 8.0 0.00 0.00 0.00 10 1009.9
20260905225105 81 298 4.0 9.0 0.00 0.00 0.00 10 1009.9
20260905225005 81 290 3.0 9.0 0.00 0.00 0.00 10 1010.0
20260905224905 81 289 3.0 9.0 0.00 0.00 0.00 10 1010.0
20260905224804 80 280 3.0 9.0 0.00 0.00 0.00 11 1010.0
20260905224705 80 283 4.0 9.0 0.00 0.00 0.00 11 1009.9
20260905224605 80 284 3.0 9.0 0.00 0.00 0.00 10 1010.0
20260905224505 80 290 3.0 9.0 0.00 0.00 0.00 10 1010.0
20260905224405 81 293 3.0 9.0 0.00 0.00 0.00 10 1010.0
20260905224305 81 293 3.0 9.0 0.00 0.00 0.00 10 1010.1
20260905224204 82 294 4.0 9.0 0.00 0.00 0.00 10 1010.0
20260905224105 82 293 5.0 9.0 0.00 0.00 0.00 10 1009.9
20260905224005 82 292 4.0 8.0 0.00 0.00 0.00 10 1010.0
20260905223904 82 287 4.0 8.0 0.00 0.00 0.00 10 1009.9
20260905223805 82 290 4.0 8.0 0.00 0.00 0.00 10 1010.0
20260905223705 82 288 4.0 8.0 0.00 0.00 0.00 10 1009.9
20260905223604 81 278 4.0 8.0 0.00 0.00 0.00 10 1009.9
20260905223504 81 274 4.0 8.0 0.00 0.00 0.00 10 1010.0
20260905223405 81 270 3.0 8.0 0.00 0.00 0.00 11 1010.0
20260905223305 81 269 3.0 8.0 0.00 0.00 0.00 11 1010.0
20260905223204 81 262 2.0 8.0 0.00 0.00 0.00 11 1010.0
20260905222605 80 280 2.0 9.0 0.00 0.00 0.00 11 1010.2
20260905222505 81 283 2.0 9.0 0.00 0.00 0.00 11 1010.2
20260905222404 81 286 2.0 9.0 0.00 0.00 0.00 11 1010.2
20260905222306 81 291 2.0 9.0 0.00 0.00 0.00 11 1010.2
20260905222205 81 304 3.0 9.0 0.00 0.00 0.00 11 1010.2
20260905222105 81 315 5.0 9.0 0.00 0.00 0.00 11 1010.3
20260905222004 81 315 4.0 8.0 0.00 0.00 0.00 12 1010.3
20260905221904 81 318 4.0 8.0 0.00 0.00 0.00 12 1010.3
20260905221805 81 310 3.0 8.0 0.00 0.00 0.00 12 1010.2
20260905221705 81 309 2.0 8.0 0.00 0.00 0.00 12 1010.3
20260905221604 80 312 2.0 8.0 0.00 0.00 0.00 12 1010.3
20260905221508 80 310 2.0 8.0 0.00 0.00 0.00 12 1010.4
20260905221305 81 309 2.0 9.0 0.00 0.00 0.00 11 1010.4
20260905221204 81 303 4.0 10.0 0.00 0.00 0.00 11 1010.3
20260905221105 81 299 4.0 10.0 0.00 0.00 0.00 11 1010.4
20260905221005 80 297 4.0 10.0 0.00 0.00 0.00 11 1010.3
20260905220904 80 290 4.0 10.0 0.00 0.00 0.00 12 1010.3
20260905220804 81 295 4.0 10.0 0.00 0.00 0.00 12 1010.4
20260905220705 81 297 4.0 10.0 0.00 0.00 0.00 12 1010.4
20260905220605 81 296 4.0 10.0 0.00 0.00 0.00 12 1010.4
20260905220504 80 295 4.0 10.0 0.00 0.00 0.00 12 1010.4
20260905220404 80 295 5.0 10.0 0.00 0.00 0.00 12 1010.4
20260905220305 80 302 7.0 10.0 0.00 0.00 0.00 12 1010.5
20260905220205 80 309 4.0 8.0 0.00 0.00 0.00 12 1010.5
20260905220105 80 313 2.0 8.0 0.00 0.00 0.00 12 1010.6
20260905220004 80 326 4.0 8.0 0.00 0.00 0.00 12 1010.7
20260905215905 80 335 5.0 8.0 0.00 0.00 0.00 12 1010.6
20260905215805 80 341 6.0 8.0 0.00 0.00 0.00 12 1010.6
20260905215705 80 355 4.0 8.0 0.00 0.00 0.00 12 1010.6
20260905215605 80 2 2.0 8.0 0.00 0.00 0.00 12 1010.6
20260905215505 80 358 2.0 8.0 0.00 0.00 0.00 12 1010.6
20260905215405 80 354 2.0 8.0 0.00 0.00 0.00 12 1010.7
20260905215306 80 348 2.0 8.0 0.00 0.00 0.00 13 1010.7
20260905215205 80 345 4.0 8.0 0.00 0.00 0.00 13 1010.7
20260905215104 80 342 4.0 8.0 0.00 0.00 0.00 13 1010.7
20260905215005 80 326 2.0 8.0 0.00 0.00 0.00 13 1010.7
20260905214905 80 310 3.0 8.0 0.00 0.00 0.00 13 1010.7
20260905214805 80 304 4.0 8.0 0.00 0.00 0.00 13 1010.6
20260905214005 80 170 1.0 8.0 0.00 0.00 0.00 13 1010.8
20260905213905 79 168 2.0 8.0 0.00 0.00 0.00 13 1010.9
20260905213805 79 167 1.0 8.0 0.00 0.00 0.00 14 1010.8
20260905213705 79 168 1.0 8.0 0.00 0.00 0.00 14 1010.9
20260905213504 79 186 2.0 8.0 0.00 0.00 0.00 15 1011.0
20260905213404 79 190 2.0 8.0 0.00 0.00 0.00 15 1011.0
20260905213305 79 204 2.0 8.0 0.00 0.00 0.00 15 1010.9
20260905213205 79 214 3.0 8.0 0.00 0.00 0.00 14 1011.1
20260905213104 79 218 2.0 8.0 0.00 0.00 0.00 15 1011.0
20260905213004 79 224 2.0 8.0 0.00 0.00 0.00 15 1011.0
20260905212905 79 239 3.0 8.0 0.00 0.00 0.00 15 1011.0
20260905212805 78 253 3.0 8.0 0.00 0.00 0.00 16 1010.9
20260905212704 78 261 2.0 8.0 0.00 0.00 0.00 16 1011.1
20260905212605 78 263 2.0 8.0 0.00 0.00 0.00 15 1011.0
20260905212505 78 269 2.0 8.0 0.00 0.00 0.00 15 1011.1
20260905212404 78 285 4.0 8.0 0.00 0.00 0.00 15 1011.1
20260905212306 78 294 4.0 8.0 0.00 0.00 0.00 15 1011.0
20260905212205 78 304 3.0 8.0 0.00 0.00 0.00 15 1011.0
20260905212105 78 309 4.0 8.0 0.00 0.00 0.00 15 1011.0
20260905212004 78 330 4.0 8.0 0.00 0.00 0.00 15 1011.0
20260905211905 78 346 5.0 8.0 0.00 0.00 0.00 15 1011.0
20260905211805 78 350 5.0 8.0 0.00 0.00 0.00 15 1011.0
20260905211505 78 336 2.0 7.0 0.00 0.00 0.00 15 1011.0
20260905211405 78 338 4.0 8.0 0.00 0.00 0.00 15 1011.1
20260905211305 78 340 2.0 9.0 0.00 0.00 0.00 15 1011.0
20260905211204 78 348 2.0 9.0 0.00 0.00 0.00 15 1011.1
20260905211105 78 357 2.0 9.0 0.00 0.00 0.00 15 1011.1
20260905211005 78 355 4.0 9.0 0.00 0.00 0.00 15 1011.1
20260905210904 78 350 4.0 9.0 0.00 0.00 0.00 15 1011.1
20260905210804 78 4 4.0 9.0 0.00 0.00 0.00 16 1011.1
20260905210705 78 12 2.0 9.0 0.00 0.00 0.00 16 1011.2
20260905210605 78 16 2.0 10.0 0.00 0.00 0.00 16 1011.2
20260905210504 78 16 2.0 10.0 0.00 0.00 0.00 16 1011.2
20260905210404 78 351 3.0 11.0 0.00 0.00 0.00 17 1011.2
20260905210305 77 331 2.0 11.0 0.00 0.00 0.00 17 1011.2
20260905210205 77 329 2.0 11.0 0.00 0.00 0.00 17 1011.2
20260905210105 77 337 2.0 11.0 0.00 0.00 0.00 17 1011.2
20260905210004 77 0 0.0 11.0 0.00 0.00 0.00 17 1011.2
20260905205904 77 342 3.0 11.0 0.00 0.00 0.00 17 1011.2
20260905205805 77 347 4.0 11.0 0.00 0.00 0.00 17 1011.3
20260905205705 77 358 4.0 11.0 0.00 0.00 0.00 17 1011.3
20260905205604 77 16 5.0 11.0 0.00 0.00 0.00 17 1011.3
20260905205504 77 27 5.0 11.0 0.00 0.00 0.00 17 1011.3
20260905205405 77 47 4.0 11.0 0.00 0.00 0.00 17 1011.1
20260905205306 77 59 5.0 11.0 0.00 0.00 0.00 17 1011.2
20260905205205 77 53 4.0 10.0 0.00 0.00 0.00 17 1011.3
20260905205105 77 46 1.0 10.0 0.00 0.00 0.00 17 1011.3
20260905204904 77 34 5.0 10.0 0.00 0.00 0.00 17 1011.3
20260905204805 77 40 2.0 11.0 0.00 0.00 0.00 17 1011.3
20260905204605 77 41 1.0 11.0 0.00 0.00 0.00 17 1011.3
20260905204505 77 40 1.0 11.0 0.00 0.00 0.00 17 1011.4
20260905204404 77 43 3.0 11.0 0.00 0.00 0.00 16 1011.5
20260905204304 77 41 4.0 11.0 0.00 0.00 0.00 16 1011.5
20260905204105 77 42 4.0 11.0 0.00 0.00 0.00 16 1011.4
20260905204005 77 48 5.0 11.0 0.00 0.00 0.00 17 1011.5
20260905203904 77 42 7.0 11.0 0.00 0.00 0.00 16 1011.5
20260905203804 77 31 8.0 11.0 0.00 0.00 0.00 16 1011.5
20260905203705 77 19 5.0 11.0 0.00 0.00 0.00 16 1011.5
20260905203607 77 353 4.0 11.0 0.00 0.00 0.00 17 1011.5
20260905203504 77 343 1.0 9.0 0.00 0.00 0.00 17 1011.4
20260905203405 77 345 1.0 9.0 0.00 0.00 0.00 17 1011.5
20260905203305 77 352 1.0 9.0 0.00 0.00 0.00 17 1011.5
20260905203205 77 10 1.0 9.0 0.00 0.00 0.00 17 1011.5
20260905203105 77 4 4.0 11.0 0.00 0.00 0.00 17 1011.6
20260905202505 77 10 2.0 11.0 0.00 0.00 0.00 17 1011.6
20260905202404 77 12 2.0 11.0 0.00 0.00 0.00 17 1011.6
20260905202306 77 10 1.0 11.0 0.00 0.00 0.00 17 1011.7
20260905202205 77 2 4.0 11.0 0.00 0.00 0.00 17 1011.7
20260905202105 77 3 6.0 11.0 0.00 0.00 0.00 17 1011.7
20260905202005 77 2 4.0 11.0 0.00 0.00 0.00 17 1011.7
20260905201904 77 5 4.0 11.0 0.00 0.00 0.00 17 1011.8
20260905201805 77 357 6.0 11.0 0.00 0.00 0.00 17 1011.7
20260905201705 77 352 4.0 11.0 0.00 0.00 0.00 18 1011.7
20260905201605 77 246 4.0 8.0 0.00 0.00 0.00 18 1011.8
20260905201505 77 217 4.0 8.0 0.00 0.00 0.00 18 1011.7
20260905201405 77 216 2.0 8.0 0.00 0.00 0.00 18 1011.8
20260905201305 76 217 3.0 8.0 0.00 0.00 0.00 18 1011.8
20260905201205 76 198 2.0 8.0 0.00 0.00 0.00 19 1011.7
20260905201104 76 200 2.0 8.0 0.00 0.00 0.00 19 1011.8
20260905201004 76 196 1.0 8.0 0.00 0.00 0.00 18 1011.8
20260905200905 76 209 1.0 8.0 0.00 0.00 0.00 18 1011.8
20260905200805 76 212 2.0 8.0 0.00 0.00 0.00 18 1011.8
20260905200704 76 212 2.0 8.0 0.00 0.00 0.00 18 1011.8
20260905200605 76 205 4.0 8.0 0.00 0.00 0.00 18 1011.8
20260905200505 76 206 4.0 8.0 0.00 0.00 0.00 18 1011.8
20260905200404 76 204 2.0 8.0 0.00 0.00 0.00 18 1011.8
20260905200205 76 217 4.0 8.0 0.00 0.00 0.00 18 1011.9
20260905200104 76 226 4.0 8.0 0.00 0.00 0.00 17 1011.9
20260905200004 76 230 4.0 8.0 0.00 0.00 0.00 17 1011.9
20260905195905 76 216 1.0 6.0 0.00 0.00 0.00 18 1011.9
20260905195704 76 217 1.0 6.0 0.00 0.00 0.00 18 1011.9
20260905195604 76 228 1.0 6.0 0.00 0.00 0.00 18 1012.0
20260905195505 76 214 2.0 6.0 0.00 0.00 0.00 18 1012.0
20260905195405 76 207 2.0 6.0 0.00 0.00 0.00 18 1012.1
20260905195306 76 195 2.0 6.0 0.00 0.00 0.00 18 1012.0
20260905195205 76 177 3.0 6.0 0.00 0.00 0.00 18 1012.0
20260905195105 76 152 3.0 5.0 0.00 0.00 0.00 19 1011.9
20260905195005 76 147 2.0 5.0 0.00 0.00 0.00 19 1011.9
20260905194905 76 136 1.0 5.0 0.00 0.00 0.00 19 1011.9
20260905194804 76 126 2.0 7.0 0.00 0.00 0.00 19 1011.9
20260905194705 76 0 0.0 7.0 0.00 0.00 0.00 19 1012.1
20260905194605 76 126 2.0 7.0 0.00 0.00 0.00 19 1011.9
20260905194504 76 130 2.0 7.0 0.00 0.00 0.00 19 1012.0
20260905194404 75 156 3.0 7.0 0.00 0.00 0.00 21 1012.0
20260905194305 75 138 1.0 7.0 0.00 0.00 0.00 21 1012.0
20260905194205 75 148 1.0 7.0 0.00 0.00 0.00 21 1012.0
20260905194105 75 195 3.0 7.0 0.00 0.00 0.00 21 1012.1
20260905194005 75 215 2.0 7.0 0.00 0.00 0.00 20 1012.1
20260905193905 75 212 4.0 8.0 0.00 0.00 0.00 20 1012.1
20260905193805 74 195 2.0 8.0 0.00 0.00 0.00 21 1012.1
20260905193705 74 197 1.0 8.0 0.00 0.00 0.00 21 1012.1
20260905193605 74 204 3.0 8.0 0.00 0.00 0.00 22 1012.0
20260905193505 74 209 2.0 8.0 0.00 0.00 0.00 22 1012.2
20260905193404 74 216 2.0 8.0 0.00 0.00 0.00 21 1012.1
20260905193304 74 0 0.0 8.0 0.00 0.00 0.00 20 1012.2
20260905193205 74 219 3.0 8.0 0.00 0.00 0.00 20 1012.3
20260905193105 74 224 4.0 11.0 0.00 0.00 0.00 20 1012.3
20260905193004 74 232 4.0 11.0 0.00 0.00 0.00 20 1012.2
20260905192905 74 241 5.0 11.0 0.00 0.00 0.00 20 1012.3
20260905192804 74 251 4.0 11.0 0.00 0.00 0.00 20 1012.3
20260905192705 74 250 2.0 11.0 0.00 0.00 0.00 20 1012.3
20260905192605 74 248 2.0 11.0 0.00 0.00 0.00 20 1012.4
20260905192004 75 187 3.0 7.0 0.00 0.00 0.00 21 1012.4
20260905191904 75 169 2.0 7.0 0.00 0.00 0.00 22 1012.5
20260905191805 75 160 1.0 7.0 0.00 0.00 0.00 23 1012.5
20260905191704 74 155 2.0 7.0 0.00 0.00 0.00 22 1012.4
20260905191604 74 155 1.0 7.0 0.00 0.00 0.00 22 1012.5
20260905191505 74 150 1.0 7.0 0.00 0.00 0.00 22 1012.5
20260905191405 74 139 2.0 7.0 0.00 0.00 0.00 22 1012.4
20260905191304 74 119 2.0 7.0 0.00 0.00 0.00 22 1012.5
20260905191205 74 101 2.0 5.0 0.00 0.00 0.00 23 1012.6
20260905191105 74 93 2.0 5.0 0.00 0.00 0.00 22 1012.6
20260905191004 74 81 2.0 5.0 0.00 0.00 0.00 22 1012.6
20260905190905 74 70 3.0 5.0 0.00 0.00 0.00 22 1012.7
20260905190804 74 64 1.0 5.0 0.00 0.00 0.00 22 1012.6
20260905190705 74 57 1.0 5.0 0.00 0.00 0.00 23 1012.7
20260905190605 73 46 2.0 5.0 0.00 0.00 0.00 22 1012.7
20260905190504 73 42 2.0 5.0 0.00 0.00 0.00 22 1012.8
20260905190305 73 28 2.0 5.0 0.00 0.00 0.00 22 1012.7
20260905190204 73 18 1.0 5.0 0.00 0.00 0.00 22 1012.7
20260905190105 73 23 2.0 5.0 0.00 0.00 0.00 23 1012.7
20260905190005 73 14 2.0 5.0 0.00 0.00 0.00 23 1012.8
20260905185904 73 14 1.0 5.0 0.00 0.00 0.00 23 1012.8
20260905185805 72 4 2.0 6.0 0.00 0.00 0.00 23 1012.8
20260905185705 72 350 2.0 6.0 0.00 0.00 0.00 24 1012.7
20260905185605 72 340 2.0 6.0 0.00 0.00 0.00 24 1012.8
20260905185505 72 0 0.0 6.0 0.00 0.00 0.00 24 1012.8
20260905185404 72 311 2.0 6.0 0.00 0.00 0.00 24 1012.8
20260905185306 72 293 2.0 6.0 0.00 0.00 0.00 25 1012.8
20260905185205 72 261 2.0 7.0 0.00 0.00 0.00 25 1012.8
20260905185104 71 265 1.0 7.0 0.00 0.00 0.00 25 1012.9
20260905185004 71 268 2.0 7.0 0.00 0.00 0.00 25 1012.9
20260905184905 71 261 2.0 7.0 0.00 0.00 0.00 26 1012.8
20260905184805 71 256 2.0 8.0 0.00 0.00 0.00 27 1012.9
20260905184704 71 252 1.0 8.0 0.00 0.00 0.00 27 1012.8
20260905184604 70 251 2.0 8.0 0.00 0.00 0.00 27 1012.9
20260905184505 70 256 2.0 8.0 0.00 0.00 0.00 27 1012.8
20260905184405 70 258 1.0 8.0 0.00 0.00 0.00 26 1012.9
20260905184304 70 263 4.0 8.0 0.00 0.00 0.00 26 1012.9
20260905184204 70 272 3.0 8.0 0.00 0.00 0.00 26 1012.9
20260905183605 70 257 3.0 6.0 0.00 0.00 0.00 27 1013.1
20260905183504 70 258 1.0 6.0 0.00 0.00 0.00 27 1013.1
20260905183404 70 266 2.0 6.0 0.00 0.00 0.00 27 1013.0
20260905183305 70 257 3.0 6.0 0.00 0.00 0.00 27 1013.0
20260905183204 69 247 2.0 6.0 0.00 0.00 0.00 27 1013.0
20260905183104 69 259 2.0 6.0 0.00 0.00 0.00 28 1013.0
20260905182505 69 0 0.0 5.0 0.00 0.00 0.00 28 1013.2
20260905182405 69 267 2.0 5.0 0.00 0.00 0.00 28 1013.2
20260905182306 69 270 2.0 5.0 0.00 0.00 0.00 28 1013.2
20260905182204 69 275 2.0 5.0 0.00 0.00 0.00 28 1013.2
20260905182104 69 281 2.0 5.0 0.00 0.00 0.00 28 1013.2
20260905182005 69 279 2.0 5.0 0.00 0.00 0.00 28 1013.2
20260905181905 69 276 3.0 5.0 0.00 0.00 0.00 28 1013.2
20260905181804 69 275 2.0 6.0 0.00 0.00 0.00 28 1013.2
20260905181705 70 284 2.0 6.0 0.00 0.00 0.00 27 1013.2
20260905181605 70 286 2.0 6.0 0.00 0.00 0.00 27 1013.2
20260905181505 70 294 2.0 6.0 0.00 0.00 0.00 27 1013.3
20260905181405 70 307 1.0 7.0 0.00 0.00 0.00 27 1013.2
20260905181304 70 315 2.0 7.0 0.00 0.00 0.00 27 1013.3
20260905181204 70 323 2.0 7.0 0.00 0.00 0.00 27 1013.3
20260905181105 70 333 2.0 8.0 0.00 0.00 0.00 27 1013.3
20260905181005 70 358 3.0 8.0 0.00 0.00 0.00 27 1013.3
20260905180904 70 17 2.0 8.0 0.00 0.00 0.00 28 1013.3
20260905180804 70 29 2.0 8.0 0.00 0.00 0.00 28 1013.2
20260905180705 70 32 1.0 8.0 0.00 0.00 0.00 28 1013.2
20260905180605 69 41 2.0 8.0 0.00 0.00 0.00 28 1013.3
20260905180504 69 54 4.0 8.0 0.00 0.00 0.00 28 1013.3
20260905180405 69 64 3.0 8.0 0.00 0.00 0.00 29 1013.3
20260905180305 69 72 1.0 8.0 0.00 0.00 0.00 29 1013.3
20260905180205 69 78 4.0 8.0 0.00 0.00 0.00 28 1013.4
20260905180105 69 87 5.0 8.0 0.00 0.00 0.00 29 1013.4
20260905180004 69 102 3.0 7.0 0.00 0.00 0.00 30 1013.3
20260905175905 69 103 2.0 6.0 0.00 0.00 0.00 30 1013.4
20260905175805 69 0 0.0 7.0 0.00 0.00 0.00 30 1013.4
20260905175704 69 0 0.0 7.0 0.00 0.00 0.00 30 1013.4
20260905175605 69 118 3.0 7.0 0.00 0.00 0.00 30 1013.4
20260905175505 69 120 1.0 7.0 0.00 0.00 0.00 31 1013.4
20260905175404 69 0 0.0 7.0 0.00 0.00 0.00 32 1013.5
20260905175306 69 108 2.0 7.0 0.00 0.00 0.00 32 1013.3
20260905175205 69 97 3.0 8.0 0.00 0.00 0.00 31 1013.5
20260905175104 69 93 3.0 8.0 0.00 0.00 0.00 31 1013.4
20260905175005 69 89 2.0 8.0 0.00 0.00 0.00 31 1013.4
20260905174905 69 88 3.0 8.0 0.00 0.00 0.00 31 1013.4
20260905174804 69 90 2.0 8.0 0.00 0.00 0.00 31 1013.3
20260905174704 69 87 2.0 8.0 0.00 0.00 0.00 31 1013.5
20260905174605 69 83 2.0 8.0 0.00 0.00 0.00 31 1013.4
20260905174505 69 70 2.0 8.0 0.00 0.00 0.00 31 1013.5
20260905174404 69 60 2.0 8.0 0.00 0.00 0.00 31 1013.4
20260905174304 69 49 5.0 8.0 0.00 0.00 0.00 31 1013.4
20260905174205 69 50 2.0 8.0 0.00 0.00 0.00 32 1013.5
20260905174105 69 63 1.0 7.0 0.00 0.00 0.00 33 1013.4
20260905173604 68 28 2.0 7.0 0.00 0.00 0.00 32 1013.6
20260905173504 68 41 3.0 8.0 0.00 0.00 0.00 33 1013.5
20260905173404 68 48 3.0 8.0 0.00 0.00 0.00 33 1013.6
20260905173305 68 39 4.0 8.0 0.00 0.00 0.00 33 1013.6
20260905173204 68 0 0.0 8.0 0.00 0.00 0.00 33 1013.6
20260905173104 67 44 3.0 8.0 0.00 0.00 0.00 33 1013.6
20260905173004 67 54 3.0 8.0 0.00 0.00 0.00 33 1013.6
20260905172905 67 53 4.0 8.0 0.00 0.00 0.00 33 1013.7
20260905172804 67 48 4.0 8.0 0.00 0.00 0.00 33 1013.7
20260905172705 67 40 4.0 8.0 0.00 0.00 0.00 33 1013.6
20260905172605 67 33 4.0 12.0 0.00 0.00 0.00 33 1013.7
20260905172504 67 19 4.0 12.0 0.00 0.00 0.00 33 1013.6
20260905172405 67 5 4.0 12.0 0.00 0.00 0.00 33 1013.7
20260905172305 67 13 2.0 12.0 0.00 0.00 0.00 34 1013.7
20260905172204 67 0 0.0 12.0 0.00 0.00 0.00 34 1013.6
20260905172105 67 351 1.0 12.0 0.00 0.00 0.00 34 1013.7
20260905172005 67 357 2.0 12.0 0.00 0.00 0.00 34 1013.7
20260905171905 67 359 3.0 12.0 0.00 0.00 0.00 33 1013.7
20260905171805 67 18 2.0 12.0 0.00 0.00 0.00 34 1013.7
20260905171304 67 128 2.0 5.0 0.00 0.00 0.00 35 1013.8
20260905171204 67 108 1.0 5.0 0.00 0.00 0.00 35 1013.6
20260905171105 67 0 0.0 5.0 0.00 0.00 0.00 35 1013.7
20260905171004 67 103 1.0 5.0 0.00 0.00 0.00 35 1013.8
20260905170904 67 109 1.0 5.0 0.00 0.00 0.00 35 1013.8
20260905170805 67 125 2.0 5.0 0.00 0.00 0.00 35 1013.8
20260905170205 66 171 1.0 4.0 0.00 0.00 0.00 37 1013.7
20260905170104 66 176 1.0 4.0 0.00 0.00 0.00 38 1013.7
20260905170004 66 182 1.0 4.0 0.00 0.00 0.00 38 1013.7
20260905165904 66 174 2.0 4.0 0.00 0.00 0.00 38 1013.6
20260905165804 66 174 2.0 4.0 0.00 0.00 0.00 38 1013.7
20260905165704 66 192 1.0 4.0 0.00 0.00 0.00 38 1013.6
20260905165604 66 198 2.0 4.0 0.00 0.00 0.00 38 1013.7
20260905165505 66 198 2.0 4.0 0.00 0.00 0.00 38 1013.7
20260905165404 66 209 2.0 4.0 0.00 0.00 0.00 38 1013.7
20260905165306 66 195 2.0 4.0 0.00 0.00 0.00 38 1013.7
20260905165205 65 175 2.0 4.0 0.00 0.00 0.00 39 1013.7
20260905165104 65 179 2.0 4.0 0.00 0.00 0.00 39 1013.6
20260905165004 65 0 0.0 4.0 0.00 0.00 0.00 39 1013.6
20260905164904 65 0 0.0 4.0 0.00 0.00 0.00 39 1013.7
20260905164804 65 157 1.0 4.0 0.00 0.00 0.00 39 1013.8
20260905164704 65 133 2.0 4.0 0.00 0.00 0.00 39 1013.7
20260905164605 65 124 2.0 4.0 0.00 0.00 0.00 39 1013.7
20260905164504 65 110 2.0 4.0 0.00 0.00 0.00 39 1013.9
20260905164304 65 104 1.0 4.0 0.00 0.00 0.00 40 1013.7
20260905164204 64 0 0.0 4.0 0.00 0.00 0.00 40 1013.8
20260905164104 64 105 2.0 4.0 0.00 0.00 0.00 40 1013.8
20260905164004 64 100 2.0 4.0 0.00 0.00 0.00 40 1013.8
20260905163905 64 118 2.0 4.0 0.00 0.00 0.00 40 1013.8
20260905163804 64 153 2.0 4.0 0.00 0.00 0.00 41 1013.8
20260905163704 64 185 2.0 4.0 0.00 0.00 0.00 41 1013.8
20260905163604 64 199 2.0 4.0 0.00 0.00 0.00 41 1013.7
20260905163504 64 214 2.0 3.0 0.00 0.00 0.00 42 1013.8
20260905163404 63 0 0.0 4.0 0.00 0.00 0.00 42 1013.8
20260905163304 63 0 0.0 4.0 0.00 0.00 0.00 42 1013.8
20260905163204 63 0 0.0 4.0 0.00 0.00 0.00 42 1013.8
20260905163104 63 223 1.0 4.0 0.00 0.00 0.00 42 1013.9
20260905163004 63 227 1.0 4.0 0.00 0.00 0.00 42 1013.8
20260905162905 63 237 2.0 4.0 0.00 0.00 0.00 42 1013.8
20260905162804 63 233 1.0 4.0 0.00 0.00 0.00 43 1013.8
20260905162306 62 233 2.0 4.0 0.00 0.00 0.00 43 1013.8
20260905161704 62 203 2.0 4.0 0.00 0.00 0.00 43 1013.9
20260905161604 62 205 1.0 4.0 0.00 0.00 0.00 44 1013.8
20260905161504 62 205 1.0 4.0 0.00 0.00 0.00 44 1013.7
20260905161404 62 208 1.0 4.0 0.00 0.00 0.00 44 1013.7
20260905161304 62 0 0.0 4.0 0.00 0.00 0.00 44 1013.8
20260905161205 62 217 1.0 4.0 0.00 0.00 0.00 44 1013.8
20260905161104 62 0 0.0 4.0 0.00 0.00 0.00 44 1013.7
20260905161004 61 0 0.0 4.0 0.00 0.00 0.00 44 1013.8
20260905160904 61 222 1.0 4.0 0.00 0.00 0.00 43 1013.8
20260905160804 61 224 2.0 4.0 0.00 0.00 0.00 43 1013.8
20260905160704 62 225 2.0 4.0 0.00 0.00 0.00 43 1013.9
20260905160604 61 226 2.0 4.0 0.00 0.00 0.00 43 1013.8
20260905160504 61 232 2.0 4.0 0.00 0.00 0.00 43 1013.8
20260905160404 61 241 2.0 4.0 0.00 0.00 0.00 43 1013.9
20260905160305 62 238 2.0 4.0 0.00 0.00 0.00 44 1013.9
20260905160204 62 225 3.0 5.0 0.00 0.00 0.00 44 1013.8
20260905160104 61 216 1.0 5.0 0.00 0.00 0.00 44 1013.9
20260905160005 61 0 0.0 5.0 0.00 0.00 0.00 44 1013.8
20260905155904 61 0 0.0 5.0 0.00 0.00 0.00 44 1013.8
20260905155804 61 232 1.0 5.0 0.00 0.00 0.00 44 1014.0
20260905155705 61 227 1.0 5.0 0.00 0.00 0.00 44 1014.0
20260905155604 61 220 2.0 5.0 0.00 0.00 0.00 43 1013.8
20260905155504 61 200 2.0 5.0 0.00 0.00 0.00 43 1013.8
20260905155405 61 195 1.0 5.0 0.00 0.00 0.00 44 1013.8
20260905155306 61 190 2.0 5.0 0.00 0.00 0.00 44 1013.9
20260905155204 61 183 1.0 4.0 0.00 0.00 0.00 44 1013.9
20260905155104 61 189 1.0 4.0 0.00 0.00 0.00 45 1013.9
20260905155004 61 185 1.0 4.0 0.00 0.00 0.00 45 1013.8
20260905154904 61 176 1.0 4.0 0.00 0.00 0.00 45 1013.8
20260905154803 61 0 0.0 4.0 0.00 0.00 0.00 45 1013.8
20260905154704 61 0 0.0 4.0 0.00 0.00 0.00 45 1013.9
20260905154604 60 193 2.0 4.0 0.00 0.00 0.00 45 1014.0
20260905154504 60 203 2.0 4.0 0.00 0.00 0.00 45 1013.9
20260905154404 60 199 2.0 4.0 0.00 0.00 0.00 46 1013.9
20260905154304 60 211 2.0 4.0 0.00 0.00 0.00 46 1014.0
20260905154204 60 199 1.0 4.0 0.00 0.00 0.00 46 1014.0
20260905154104 60 0 0.0 4.0 0.00 0.00 0.00 46 1013.9
20260905154004 60 195 1.0 4.0 0.00 0.00 0.00 46 1014.1
20260905153904 60 191 2.0 4.0 0.00 0.00 0.00 47 1014.1
20260905153804 60 178 1.0 4.0 0.00 0.00 0.00 47 1014.0
20260905153704 60 0 0.0 2.0 0.00 0.00 0.00 47 1013.9
20260905153604 60 174 1.0 2.0 0.00 0.00 0.00 47 1013.9
20260905153504 60 0 0.0 2.0 0.00 0.00 0.00 48 1013.9
20260905153404 60 0 0.0 2.0 0.00 0.00 0.00 48 1013.9
20260905153305 59 0 0.0 2.0 0.00 0.00 0.00 48 1013.9
20260905153204 59 0 0.0 3.0 0.00 0.00 0.00 48 1013.9
20260905153104 59 178 1.0 3.0 0.00 0.00 0.00 49 1013.9
20260905153004 59 178 1.0 3.0 0.00 0.00 0.00 49 1013.8
20260905152904 59 0 0.0 3.0 0.00 0.00 0.00 49 1013.9
20260905152804 59 187 1.0 3.0 0.00 0.00 0.00 49 1013.9
20260905152704 59 0 0.0 3.0 0.00 0.00 0.00 49 1014.0
20260905152504 58 0 0.0 3.0 0.00 0.00 0.00 50 1014.0
20260905152404 58 0 0.0 3.0 0.00 0.00 0.00 50 1014.0
20260905152306 58 171 2.0 3.0 0.00 0.00 0.00 50 1014.0
20260905152204 58 0 0.0 3.0 0.00 0.00 0.00 49 1014.0
20260905152104 58 168 1.0 3.0 0.00 0.00 0.00 50 1013.9
20260905152004 58 158 1.0 4.0 0.00 0.00 0.00 50 1014.0
20260905151904 58 0 0.0 4.0 0.00 0.00 0.00 50 1014.0
20260905151804 58 138 1.0 4.0 0.00 0.00 0.00 50 1014.0
20260905151704 58 0 0.0 4.0 0.00 0.00 0.00 50 1014.0
20260905151604 58 0 0.0 4.0 0.00 0.00 0.00 51 1014.0
20260905151504 58 0 0.0 4.0 0.00 0.00 0.00 51 1014.0
20260905151404 58 0 0.0 4.0 0.00 0.00 0.00 52 1013.9
20260905151303 57 0 0.0 4.0 0.00 0.00 0.00 52 1014.0
20260905151204 57 0 0.0 4.0 0.00 0.00 0.00 52 1014.0
20260905151104 57 121 2.0 4.0 0.00 0.00 0.00 52 1013.9
20260905151004 57 116 1.0 4.0 0.00 0.00 0.00 52 1013.9
20260905150904 57 115 1.0 4.0 0.00 0.00 0.00 53 1014.1
20260905150804 57 0 0.0 4.0 0.00 0.00 0.00 53 1014.0
20260905150704 56 0 0.0 4.0 0.00 0.00 0.00 53 1013.9
20260905150604 56 114 2.0 4.0 0.00 0.00 0.00 53 1013.9
20260905150504 56 118 1.0 4.0 0.00 0.00 0.00 54 1014.0
20260905150404 56 0 0.0 4.0 0.00 0.00 0.00 55 1014.0
20260905150304 56 0 0.0 4.0 0.00 0.00 0.00 55 1014.1
20260905150204 56 125 1.0 4.0 0.00 0.00 0.00 55 1014.0
20260905150104 55 128 1.0 4.0 0.00 0.00 0.00 56 1013.9
20260905150004 55 0 0.0 4.0 0.00 0.00 0.00 56 1014.0
20260905145904 55 136 1.0 4.0 0.00 0.00 0.00 56 1014.1
20260905145704 55 138 1.0 4.0 0.00 0.00 0.00 57 1014.1
20260905145604 54 138 1.0 4.0 0.00 0.00 0.00 57 1014.1
20260905145505 54 147 1.0 3.0 0.00 0.00 0.00 58 1014.1
20260905145404 54 160 1.0 2.0 0.00 0.00 0.00 58 1014.1
20260905145306 54 0 0.0 2.0 0.00 0.00 0.00 59 1014.1
20260905145204 54 0 0.0 2.0 0.00 0.00 0.00 59 1014.2
20260905145104 53 0 0.0 3.0 0.00 0.00 0.00 59 1014.2
20260905145005 53 0 0.0 3.0 0.00 0.00 0.00 60 1014.1
20260905144904 53 0 0.0 3.0 0.00 0.00 0.00 60 1014.1
20260905144804 53 0 0.0 3.0 0.00 0.00 0.00 60 1014.0
20260905144404 52 0 0.0 3.0 0.00 0.00 0.00 61 1014.2
20260905144304 52 125 1.0 3.0 0.00 0.00 0.00 61 1014.1
20260905144204 51 119 1.0 3.0 0.00 0.00 0.00 61 1014.2
20260905144104 51 128 1.0 3.0 0.00 0.00 0.00 61 1014.1
20260905144004 51 128 1.0 3.0 0.00 0.00 0.00 62 1014.2
20260905143905 51 0 0.0 3.0 0.00 0.00 0.00 62 1014.2
20260905143804 51 0 0.0 3.0 0.00 0.00 0.00 62 1014.2
20260905143704 51 0 0.0 3.0 0.00 0.00 0.00 62 1014.2
20260905143604 51 0 0.0 3.0 0.00 0.00 0.00 63 1014.1
20260905143504 51 0 0.0 3.0 0.00 0.00 0.00 63 1014.2
20260905143404 50 0 0.0 3.0 0.00 0.00 0.00 63 1014.1
20260905142904 49 0 0.0 2.0 0.00 0.00 0.00 67 1014.2
20260905142803 49 0 0.0 2.0 0.00 0.00 0.00 68 1014.1
20260905142704 49 0 0.0 2.0 0.00 0.00 0.00 68 1014.1
20260905142604 48 0 0.0 2.0 0.00 0.00 0.00 69 1014.1
20260905142504 48 0 0.0 2.0 0.00 0.00 0.00 69 1014.1
20260905142404 48 0 0.0 2.0 0.00 0.00 0.00 70 1014.0
20260905142306 47 0 0.0 2.0 0.00 0.00 0.00 70 1014.0
20260905142204 47 0 0.0 2.0 0.00 0.00 0.00 70 1014.0
20260905142104 47 0 0.0 2.0 0.00 0.00 0.00 70 1014.1
20260905142004 46 0 0.0 2.0 0.00 0.00 0.00 70 1014.0
20260905141904 46 0 0.0 1.0 0.00 0.00 0.00 71 1014.1
20260905141804 46 0 0.0 1.0 0.00 0.00 0.00 71 1014.0
20260905141704 46 0 0.0 1.0 0.00 0.00 0.00 71 1014.0
20260905141604 45 0 0.0 1.0 0.00 0.00 0.00 71 1014.0
20260905141504 45 0 0.0 1.0 0.00 0.00 0.00 71 1014.1
20260905141404 45 0 0.0 1.0 0.00 0.00 0.00 71 1014.0
20260905141304 44 0 0.0 1.0 0.00 0.00 0.00 73 1014.0
20260905141204 44 0 0.0 2.0 0.00 0.00 0.00 73 1013.9
20260905141104 44 0 0.0 2.0 0.00 0.00 0.00 73 1013.9
20260905141004 44 0 0.0 2.0 0.00 0.00 0.00 73 1013.9
20260905140904 44 0 0.0 2.0 0.00 0.00 0.00 73 1013.9
20260905140404 43 0 0.0 2.0 0.00 0.00 0.00 74 1013.8
20260905140303 43 96 1.0 2.0 0.00 0.00 0.00 74 1013.9
20260905140205 42 92 2.0 2.0 0.00 0.00 0.00 74 1013.8
20260905140104 42 92 1.0 2.0 0.00 0.00 0.00 74 1013.7
20260905140004 42 0 0.0 2.0 0.00 0.00 0.00 74 1013.8
20260905135903 42 0 0.0 2.0 0.00 0.00 0.00 74 1013.7
20260905135804 42 0 0.0 2.0 0.00 0.00 0.00 74 1013.8
20260905135704 42 90 2.0 2.0 0.00 0.00 0.00 74 1013.7
20260905135604 41 90 2.0 2.0 0.00 0.00 0.00 74 1013.7
20260905135504 41 90 1.0 2.0 0.00 0.00 0.00 74 1013.7
20260905135404 41 0 0.0 2.0 0.00 0.00 0.00 74 1013.6
20260905135203 41 98 1.0 2.0 0.00 0.00 0.00 75 1013.7
20260905135104 41 124 2.0 3.0 0.00 0.00 0.00 74 1013.7
20260905135004 41 0 0.0 3.0 0.00 0.00 0.00 74 1013.6
20260905134904 41 0 0.0 3.0 0.00 0.00 0.00 74 1013.8
20260905134804 41 0 0.0 3.0 0.00 0.00 0.00 74 1013.6
20260905134704 41 0 0.0 3.0 0.00 0.00 0.00 74 1013.7
20260905134604 41 0 0.0 3.0 0.00 0.00 0.00 74 1013.6
20260905134504 41 0 0.0 3.0 0.00 0.00 0.00 74 1013.7
20260905134404 41 169 1.0 3.0 0.00 0.00 0.00 74 1013.6
20260905134304 41 0 0.0 3.0 0.00 0.00 0.00 74 1013.8
20260905134205 41 0 0.0 3.0 0.00 0.00 0.00 74 1013.6
20260905134104 41 160 1.0 3.0 0.00 0.00 0.00 74 1013.6
20260905134004 41 0 0.0 3.0 0.00 0.00 0.00 74 1013.7
20260905133905 41 0 0.0 3.0 0.00 0.00 0.00 74 1013.6
20260905133804 41 0 0.0 3.0 0.00 0.00 0.00 74 1013.7
20260905133704 41 0 0.0 3.0 0.00 0.00 0.00 74 1013.7
20260905133605 41 147 1.0 3.0 0.00 0.00 0.00 74 1013.7
20260905133504 41 0 0.0 2.0 0.00 0.00 0.00 74 1013.7
20260905133004 41 0 0.0 2.0 0.00 0.00 0.00 74 1013.6
20260905132904 41 0 0.0 3.0 0.00 0.00 0.00 73 1013.6
20260905132804 41 0 0.0 3.0 0.00 0.00 0.00 73 1013.6
20260905132704 41 0 0.0 3.0 0.00 0.00 0.00 73 1013.6
20260905132604 41 0 0.0 3.0 0.00 0.00 0.00 73 1013.6
20260905132504 41 0 0.0 3.0 0.00 0.00 0.00 73 1013.6
20260905132104 41 0 0.0 4.0 0.00 0.00 0.00 73 1013.5
20260905132004 41 93 2.0 4.0 0.00 0.00 0.00 73 1013.5
20260905131904 41 90 2.0 4.0 0.00 0.00 0.00 73 1013.5
20260905131703 41 90 2.0 4.0 0.00 0.00 0.00 73 1013.5
20260905131604 40 90 2.0 4.0 0.00 0.00 0.00 72 1013.5
20260905131504 40 90 2.0 4.0 0.00 0.00 0.00 72 1013.4
20260905131404 41 90 2.0 4.0 0.00 0.00 0.00 72 1013.4
20260905131304 40 90 3.0 4.0 0.00 0.00 0.00 72 1013.4
20260905131204 40 90 3.0 4.0 0.00 0.00 0.00 72 1013.5
20260905131104 40 90 2.0 3.0 0.00 0.00 0.00 71 1013.5
20260905131004 40 90 2.0 3.0 0.00 0.00 0.00 71 1013.4
20260905130904 40 90 2.0 3.0 0.00 0.00 0.00 71 1013.4
20260905130805 40 90 1.0 2.0 0.00 0.00 0.00 71 1013.4
20260905130704 40 90 1.0 3.0 0.00 0.00 0.00 72 1013.4
20260905130604 40 90 1.0 3.0 0.00 0.00 0.00 72 1013.3
20260905130504 40 0 0.0 3.0 0.00 0.00 0.00 72 1013.3
20260905130404 40 90 1.0 3.0 0.00 0.00 0.00 72 1013.4
20260905130304 40 90 1.0 3.0 0.00 0.00 0.00 72 1013.4
20260905130204 40 90 1.0 3.0 0.00 0.00 0.00 72 1013.4
20260905130104 40 90 1.0 3.0 0.00 0.00 0.00 72 1013.3
20260905130004 40 90 2.0 3.0 0.00 0.00 0.00 72 1013.3
20260905125904 40 90 2.0 3.0 0.00 0.00 0.00 72 1013.3
20260905125804 40 90 2.0 3.0 0.00 0.00 0.00 72 1013.4
20260905125704 40 90 2.0 3.0 0.00 0.00 0.00 71 1013.3
20260905125604 40 90 2.0 3.0 0.00 0.00 0.00 71 1013.4
20260905125504 40 90 2.0 3.0 0.00 0.00 0.00 71 1013.3
20260905125404 40 90 2.0 3.0 0.00 0.00 0.00 71 1013.4
20260905125306 40 90 2.0 3.0 0.00 0.00 0.00 70 1013.4
20260905125204 40 90 2.0 3.0 0.00 0.00 0.00 70 1013.4
20260905125104 40 95 2.0 3.0 0.00 0.00 0.00 69 1013.3
20260905125004 40 106 2.0 3.0 0.00 0.00 0.00 69 1013.3
20260905124904 40 105 2.0 4.0 0.00 0.00 0.00 69 1013.3
20260905124804 40 104 1.0 4.0 0.00 0.00 0.00 69 1013.4
20260905124704 40 105 1.0 4.0 0.00 0.00 0.00 69 1013.3
20260905124603 40 108 1.0 4.0 0.00 0.00 0.00 69 1013.3
20260905124504 41 113 1.0 4.0 0.00 0.00 0.00 69 1013.4
20260905124304 41 0 0.0 4.0 0.00 0.00 0.00 70 1013.3
20260905124204 41 0 0.0 4.0 0.00 0.00 0.00 70 1013.3
20260905124104 41 0 0.0 4.0 0.00 0.00 0.00 70 1013.3
20260905124004 41 97 2.0 4.0 0.00 0.00 0.00 70 1013.3
20260905123904 41 103 2.0 3.0 0.00 0.00 0.00 70 1013.3
20260905123804 41 0 0.0 3.0 0.00 0.00 0.00 70 1013.3
20260905123304 42 0 0.0 3.0 0.00 0.00 0.00 70 1013.3
20260905123104 42 0 0.0 2.0 0.00 0.00 0.00 72 1013.3
20260905123004 42 0 0.0 2.0 0.00 0.00 0.00 73 1013.3
20260905122904 42 0 0.0 2.0 0.00 0.00 0.00 73 1013.3
20260905122804 42 0 0.0 2.0 0.00 0.00 0.00 73 1013.3
20260905122704 42 0 0.0 2.0 0.00 0.00 0.00 72 1013.3
20260905122604 42 0 0.0 2.0 0.00 0.00 0.00 72 1013.3
20260905122504 42 0 0.0 2.0 0.00 0.00 0.00 72 1013.3
20260905122404 42 0 0.0 1.0 0.00 0.00 0.00 71 1013.3
20260905122306 42 0 0.0 0.0 0.00 0.00 0.00 71 1013.2
20260905122204 42 0 0.0 0.0 0.00 0.00 0.00 71 1013.3
20260905122003 42 0 0.0 0.0 0.00 0.00 0.00 71 1013.3
20260905121904 42 0 0.0 1.0 0.00 0.00 0.00 71 1013.3
20260905121804 42 0 0.0 1.0 0.00 0.00 0.00 71 1013.3
20260905121704 42 0 0.0 2.0 0.00 0.00 0.00 72 1013.3
20260905121603 42 0 0.0 2.0 0.00 0.00 0.00 71 1013.5
20260905121504 42 0 0.0 2.0 0.00 0.00 0.00 71 1013.4
20260905121404 42 0 0.0 2.0 0.00 0.00 0.00 70 1013.5
20260905121304 42 0 0.0 2.0 0.00 0.00 0.00 70 1013.5
20260905121204 42 0 0.0 2.0 0.00 0.00 0.00 69 1013.4
20260905121104 42 0 0.0 2.0 0.00 0.00 0.00 69 1013.4
20260905121005 42 0 0.0 2.0 0.00 0.00 0.00 69 1013.5
20260905120404 42 0 0.0 2.0 0.00 0.00 0.00 69 1013.5
20260905120304 42 0 0.0 2.0 0.00 0.00 0.00 69 1013.4
20260905120204 42 0 0.0 2.0 0.00 0.00 0.00 69 1013.3
20260905120104 42 0 0.0 2.0 0.00 0.00 0.00 69 1013.4
20260905120004 42 0 0.0 2.0 0.00 0.00 0.00 69 1013.5
20260905115904 42 0 0.0 2.0 0.00 0.00 0.00 69 1013.5
20260905115804 42 125 1.0 2.0 0.00 0.00 0.00 69 1013.4
20260905115704 42 107 1.0 2.0 0.00 0.00 0.00 68 1013.4
20260905115603 42 0 0.0 2.0 0.00 0.00 0.00 68 1013.4
20260905115504 42 0 0.0 2.0 0.00 0.00 0.00 68 1013.4
20260905115404 42 89 1.0 2.0 0.00 0.00 0.00 67 1013.4
20260905115306 42 86 1.0 2.0 0.00 0.00 0.00 68 1013.4
20260905115204 42 0 0.0 2.0 0.00 0.00 0.00 68 1013.3
20260905115104 42 0 0.0 2.0 0.00 0.00 0.00 68 1013.3
20260905115004 42 0 0.0 2.0 0.00 0.00 0.00 67 1013.4
20260905114904 42 101 1.0 2.0 0.00 0.00 0.00 67 1013.4
20260905114805 43 107 1.0 2.0 0.00 0.00 0.00 68 1013.4
20260905114604 43 0 0.0 2.0 0.00 0.00 0.00 69 1013.3
20260905114504 43 0 0.0 2.0 0.00 0.00 0.00 69 1013.3
20260905114404 42 0 0.0 2.0 0.00 0.00 0.00 69 1013.4
20260905114304 42 0 0.0 2.0 0.00 0.00 0.00 69 1013.4
20260905114204 42 0 0.0 2.0 0.00 0.00 0.00 68 1013.3
20260905114104 42 0 0.0 2.0 0.00 0.00 0.00 68 1013.3
20260905114004 42 0 0.0 2.0 0.00 0.00 0.00 67 1013.3
20260905113904 42 0 0.0 2.0 0.00 0.00 0.00 67 1013.3
20260905113803 42 0 0.0 2.0 0.00 0.00 0.00 67 1013.2
20260905113704 42 0 0.0 2.0 0.00 0.00 0.00 66 1013.3
20260905113604 42 0 0.0 2.0 0.00 0.00 0.00 65 1013.3
20260905113004 43 0 0.0 2.0 0.00 0.00 0.00 67 1013.1
20260905112904 43 0 0.0 2.0 0.00 0.00 0.00 67 1013.3
20260905112803 43 0 0.0 2.0 0.00 0.00 0.00 68 1013.3
20260905112704 43 0 0.0 2.0 0.00 0.00 0.00 69 1013.4
20260905112604 43 0 0.0 2.0 0.00 0.00 0.00 69 1013.4
20260905112504 43 0 0.0 2.0 0.00 0.00 0.00 68 1013.3
20260905112403 42 0 0.0 2.0 0.00 0.00 0.00 67 1013.3
20260905112306 42 0 0.0 2.0 0.00 0.00 0.00 66 1013.3
20260905112204 42 136 1.0 2.0 0.00 0.00 0.00 66 1013.3
20260905112104 42 138 1.0 2.0 0.00 0.00 0.00 67 1013.2
20260905112004 42 0 0.0 2.0 0.00 0.00 0.00 67 1013.2
20260905111904 42 139 1.0 2.0 0.00 0.00 0.00 66 1013.2
20260905111804 42 139 1.0 2.0 0.00 0.00 0.00 66 1013.2
20260905111704 42 141 1.0 2.0 0.00 0.00 0.00 65 1013.3
20260905111604 42 0 0.0 2.0 0.00 0.00 0.00 64 1013.3
20260905111504 42 0 0.0 2.0 0.00 0.00 0.00 64 1013.3
20260905111404 42 140 1.0 2.0 0.00 0.00 0.00 63 1013.2
20260905111304 42 0 0.0 2.0 0.00 0.00 0.00 63 1013.2
20260905111204 42 135 1.0 2.0 0.00 0.00 0.00 62 1013.2
20260905111104 42 0 0.0 2.0 0.00 0.00 0.00 62 1013.2
20260905111004 42 0 0.0 0.0 0.00 0.00 0.00 62 1013.3
20260905110904 42 0 0.0 0.0 0.00 0.00 0.00 62 1013.2
20260905110804 43 0 0.0 0.0 0.00 0.00 0.00 62 1013.2
20260905110704 43 0 0.0 0.0 0.00 0.00 0.00 63 1013.2
20260905110603 43 0 0.0 0.0 0.00 0.00 0.00 63 1013.2
20260905110504 43 0 0.0 0.0 0.00 0.00 0.00 63 1013.2
20260905110404 43 0 0.0 0.0 0.00 0.00 0.00 63 1013.1
20260905110304 43 0 0.0 0.0 0.00 0.00 0.00 63 1013.1
20260905110203 43 0 0.0 1.0 0.00 0.00 0.00 63 1013.2
20260905110104 43 0 0.0 2.0 0.00 0.00 0.00 63 1013.1
20260905110004 43 0 0.0 2.0 0.00 0.00 0.00 63 1013.1
20260905105904 43 0 0.0 2.0 0.00 0.00 0.00 63 1013.1
20260905105804 43 0 0.0 2.0 0.00 0.00 0.00 64 1013.1
20260905105703 44 0 0.0 2.0 0.00 0.00 0.00 64 1013.2
20260905105504 44 0 0.0 2.0 0.00 0.00 0.00 64 1013.1
20260905105404 44 0 0.0 2.0 0.00 0.00 0.00 64 1013.0
20260905105306 44 0 0.0 2.0 0.00 0.00 0.00 64 1013.1
20260905105203 44 0 0.0 2.0 0.00 0.00 0.00 64 1013.1
20260905105104 44 0 0.0 2.0 0.00 0.00 0.00 64 1013.1
20260905105004 44 0 0.0 2.0 0.00 0.00 0.00 63 1013.1
20260905104904 44 0 0.0 2.0 0.00 0.00 0.00 63 1013.1
20260905104804 44 0 0.0 2.0 0.00 0.00 0.00 62 1013.3
20260905104704 44 0 0.0 2.0 0.00 0.00 0.00 62 1013.1
20260905104604 44 0 0.0 2.0 0.00 0.00 0.00 62 1013.1
20260905104004 45 0 0.0 2.0 0.00 0.00 0.00 62 1013.0
20260905103903 45 0 0.0 2.0 0.00 0.00 0.00 62 1013.1
20260905103803 45 0 0.0 2.0 0.00 0.00 0.00 62 1013.0
20260905103704 45 0 0.0 2.0 0.00 0.00 0.00 63 1013.0
20260905103604 45 0 0.0 2.0 0.00 0.00 0.00 63 1013.1
20260905103504 45 0 0.0 2.0 0.00 0.00 0.00 62 1013.0
20260905103404 45 0 0.0 2.0 0.00 0.00 0.00 61 1013.1
20260905103304 46 0 0.0 2.0 0.00 0.00 0.00 61 1013.0
20260905103204 46 0 0.0 2.0 0.00 0.00 0.00 62 1013.1
20260905103104 46 0 0.0 2.0 0.00 0.00 0.00 62 1013.1
20260905103003 46 0 0.0 2.0 0.00 0.00 0.00 63 1013.1
20260905102903 46 0 0.0 2.0 0.00 0.00 0.00 63 1013.0
20260905102804 46 0 0.0 2.0 0.00 0.00 0.00 63 1013.2
20260905102704 46 0 0.0 2.0 0.00 0.00 0.00 63 1013.1
20260905102604 46 0 0.0 2.0 0.00 0.00 0.00 64 1012.9
20260905102503 46 0 0.0 2.0 0.00 0.00 0.00 64 1013.0
20260905102404 46 0 0.0 2.0 0.00 0.00 0.00 64 1013.0
20260905102306 46 139 1.0 2.0 0.00 0.00 0.00 64 1013.1
20260905102204 46 135 1.0 2.0 0.00 0.00 0.00 64 1013.1
20260905102104 46 135 1.0 2.0 0.00 0.00 0.00 64 1013.0
20260905102004 46 135 1.0 2.0 0.00 0.00 0.00 63 1013.0
20260905101904 46 135 1.0 2.0 0.00 0.00 0.00 63 1012.9
20260905101404 46 0 0.0 2.0 0.00 0.00 0.00 62 1013.0
20260905101304 46 0 0.0 2.0 0.00 0.00 0.00 62 1013.1
20260905101204 46 0 0.0 2.0 0.00 0.00 0.00 63 1013.0
20260905101103 47 0 0.0 2.0 0.00 0.00 0.00 63 1013.0
20260905101004 47 0 0.0 2.0 0.00 0.00 0.00 63 1013.0
20260905100904 47 0 0.0 2.0 0.00 0.00 0.00 62 1013.2
20260905100805 47 0 0.0 1.0 0.00 0.00 0.00 61 1013.1
20260905100204 48 0 0.0 2.0 0.00 0.00 0.00 62 1013.0
20260905100104 48 0 0.0 2.0 0.00 0.00 0.00 62 1012.9
20260905100004 48 0 0.0 2.0 0.00 0.00 0.00 62 1013.0
20260905095904 48 0 0.0 2.0 0.00 0.00 0.00 62 1013.0
20260905095804 48 0 0.0 2.0 0.00 0.00 0.00 61 1013.0
20260905095704 48 0 0.0 2.0 0.00 0.00 0.00 61 1012.9
20260905095603 48 138 1.0 2.0 0.00 0.00 0.00 61 1012.9
20260905095504 48 135 1.0 2.0 0.00 0.00 0.00 60 1013.0
20260905095404 48 135 1.0 2.0 0.00 0.00 0.00 60 1013.0
20260905095306 48 135 1.0 2.0 0.00 0.00 0.00 60 1013.0
20260905095203 48 0 0.0 2.0 0.00 0.00 0.00 59 1012.8
20260905095104 48 0 0.0 2.0 0.00 0.00 0.00 59 1012.9
20260905094604 49 0 0.0 2.0 0.00 0.00 0.00 59 1012.8
20260905094504 49 0 0.0 2.0 0.00 0.00 0.00 59 1012.8
20260905094403 49 0 0.0 2.0 0.00 0.00 0.00 59 1012.9
20260905094304 49 0 0.0 2.0 0.00 0.00 0.00 59 1012.9
20260905094204 49 0 0.0 2.0 0.00 0.00 0.00 60 1012.9
20260905094103 49 0 0.0 4.0 0.00 0.00 0.00 60 1012.8
20260905094004 49 0 0.0 4.0 0.00 0.00 0.00 60 1012.9
20260905093904 49 0 0.0 4.0 0.00 0.00 0.00 60 1012.8
20260905093803 49 0 0.0 4.0 0.00 0.00 0.00 60 1012.8
20260905093703 49 0 0.0 4.0 0.00 0.00 0.00 60 1012.8
20260905093604 49 239 2.0 4.0 0.00 0.00 0.00 60 1012.8
20260905093504 49 244 1.0 4.0 0.00 0.00 0.00 60 1012.7
20260905093303 49 254 1.0 4.0 0.00 0.00 0.00 59 1012.7
20260905093204 49 257 2.0 4.0 0.00 0.00 0.00 59 1012.7
20260905093104 49 263 2.0 3.0 0.00 0.00 0.00 59 1012.7
20260905093004 49 256 2.0 3.0 0.00 0.00 0.00 58 1012.6
20260905092903 50 244 2.0 3.0 0.00 0.00 0.00 58 1012.7
20260905092404 51 0 0.0 2.0 0.00 0.00 0.00 58 1012.6
20260905092306 51 0 0.0 2.0 0.00 0.00 0.00 58 1012.7
20260905092204 51 0 0.0 2.0 0.00 0.00 0.00 58 1012.7
20260905092104 51 0 0.0 2.0 0.00 0.00 0.00 58 1012.5
20260905092004 51 0 0.0 2.0 0.00 0.00 0.00 58 1012.6
20260905091903 51 195 1.0 2.0 0.00 0.00 0.00 58 1012.5
20260905091804 51 198 1.0 2.0 0.00 0.00 0.00 59 1012.5
20260905091704 51 195 1.0 2.0 0.00 0.00 0.00 59 1012.6
20260905091604 51 201 1.0 2.0 0.00 0.00 0.00 59 1012.6
20260905091503 51 209 1.0 2.0 0.00 0.00 0.00 59 1012.6
20260905091403 51 219 2.0 2.0 0.00 0.00 0.00 59 1012.6
20260905091304 51 225 1.0 2.0 0.00 0.00 0.00 59 1012.5
20260905091204 51 236 1.0 2.0 0.00 0.00 0.00 59 1012.5
20260905091103 51 243 1.0 2.0 0.00 0.00 0.00 59 1012.5
20260905091004 51 0 0.0 2.0 0.00 0.00 0.00 59 1012.5
20260905090904 51 0 0.0 2.0 0.00 0.00 0.00 59 1012.5
20260905090804 50 255 1.0 2.0 0.00 0.00 0.00 60 1012.5
20260905090703 50 0 0.0 2.0 0.00 0.00 0.00 61 1012.5
20260905090604 50 0 0.0 2.0 0.00 0.00 0.00 61 1012.5
20260905090004 50 0 0.0 2.0 0.00 0.00 0.00 60 1012.6
20260905085904 50 154 1.0 2.0 0.00 0.00 0.00 60 1012.6
20260905085804 50 150 1.0 2.0 0.00 0.00 0.00 60 1012.7
20260905085703 50 0 0.0 2.0 0.00 0.00 0.00 59 1012.8
20260905085603 50 0 0.0 2.0 0.00 0.00 0.00 59 1012.6
20260905085404 50 0 0.0 2.0 0.00 0.00 0.00 60 1012.8
20260905085306 50 0 0.0 2.0 0.00 0.00 0.00 60 1012.7
20260905085204 50 171 1.0 2.0 0.00 0.00 0.00 60 1012.7
20260905085104 50 0 0.0 2.0 0.00 0.00 0.00 60 1012.6
20260905085004 50 0 0.0 2.0 0.00 0.00 0.00 60 1012.7
20260905084904 50 191 1.0 2.0 0.00 0.00 0.00 60 1012.8
20260905084804 49 0 0.0 2.0 0.00 0.00 0.00 61 1012.7
20260905084703 49 197 1.0 2.0 0.00 0.00 0.00 61 1012.6
20260905084604 49 189 1.0 2.0 0.00 0.00 0.00 61 1012.7
20260905084503 49 184 1.0 2.0 0.00 0.00 0.00 61 1012.7
20260905084404 49 209 1.0 2.0 0.00 0.00 0.00 60 1012.6
20260905084304 49 192 2.0 2.0 0.00 0.00 0.00 59 1012.8
20260905084204 49 0 0.0 2.0 0.00 0.00 0.00 59 1012.6
20260905084104 49 0 0.0 2.0 0.00 0.00 0.00 59 1012.6
20260905084004 49 109 1.0 2.0 0.00 0.00 0.00 58 1012.6
20260905083904 49 0 0.0 2.0 0.00 0.00 0.00 58 1012.6
20260905083803 49 0 0.0 2.0 0.00 0.00 0.00 57 1012.6
20260905083704 49 0 0.0 2.0 0.00 0.00 0.00 57 1012.6
20260905083604 49 138 1.0 2.0 0.00 0.00 0.00 56 1012.5
20260905083503 50 144 1.0 3.0 0.00 0.00 0.00 56 1012.5
20260905083404 50 0 0.0 3.0 0.00 0.00 0.00 56 1012.6
20260905083304 50 0 0.0 3.0 0.00 0.00 0.00 56 1012.6
20260905083103 50 0 0.0 3.0 0.00 0.00 0.00 55 1012.6
20260905083003 50 162 1.0 4.0 0.00 0.00 0.00 55 1012.5
20260905082904 50 167 1.0 4.0 0.00 0.00 0.00 55 1012.6
20260905082804 51 169 1.0 4.0 0.00 0.00 0.00 54 1012.6
20260905082703 51 0 0.0 4.0 0.00 0.00 0.00 54 1012.7
20260905082604 51 163 2.0 4.0 0.00 0.00 0.00 54 1012.5
20260905082104 52 0 0.0 4.0 0.00 0.00 0.00 52 1012.5
20260905081603 53 167 1.0 2.0 0.00 0.00 0.00 50 1012.5
20260905081104 54 0 0.0 2.0 0.00 0.00 0.00 49 1012.4
20260905080604 55 0 0.0 2.0 0.00 0.00 0.00 48 1012.4
20260905080503 55 0 0.0 2.0 0.00 0.00 0.00 48 1012.5
20260905080404 55 0 0.0 2.0 0.00 0.00 0.00 48 1012.6
20260905080304 55 0 0.0 2.0 0.00 0.00 0.00 48 1012.5
20260905080204 55 0 0.0 2.0 0.00 0.00 0.00 48 1012.6
20260905080104 55 0 0.0 2.0 0.00 0.00 0.00 48 1012.5
20260905080004 55 69 1.0 2.0 0.00 0.00 0.00 48 1012.3
20260905075904 55 25 1.0 2.0 0.00 0.00 0.00 47 1012.4
20260905075804 55 0 0.0 2.0 0.00 0.00 0.00 48 1012.4
20260905075704 55 0 0.0 2.0 0.00 0.00 0.00 48 1012.4
20260905075604 56 0 0.0 2.0 0.00 0.00 0.00 48 1012.3
20260905075504 56 0 0.0 2.0 0.00 0.00 0.00 48 1012.4
20260905075306 56 0 0.0 2.0 0.00 0.00 0.00 48 1012.4
20260905075204 56 0 0.0 2.0 0.00 0.00 0.00 47 1012.4
20260905075103 56 0 0.0 2.0 0.00 0.00 0.00 47 1012.4
20260905075003 56 0 0.0 3.0 0.00 0.00 0.00 47 1012.3
20260905074904 56 0 0.0 3.0 0.00 0.00 0.00 46 1012.4
20260905074204 56 0 0.0 4.0 0.00 0.00 0.00 45 1012.3
20260905074104 56 0 0.0 4.0 0.00 0.00 0.00 45 1012.3
20260905074003 57 25 2.0 5.0 0.00 0.00 0.00 44 1012.3
20260905073904 57 25 2.0 5.0 0.00 0.00 0.00 44 1012.4
20260905073804 57 29 2.0 5.0 0.00 0.00 0.00 44 1012.4
20260905073704 57 32 2.0 8.0 0.00 0.00 0.00 44 1012.3
20260905073604 57 30 1.0 8.0 0.00 0.00 0.00 44 1012.3
20260905073504 57 18 2.0 8.0 0.00 0.00 0.00 44 1012.2
20260905073404 58 341 2.0 8.0 0.00 0.00 0.00 44 1012.3
20260905073304 58 299 2.0 8.0 0.00 0.00 0.00 44 1012.3
20260905073203 58 279 2.0 10.0 0.00 0.00 0.00 45 1012.3
20260905073104 58 282 3.0 10.0 0.00 0.00 0.00 45 1012.3
20260905073004 58 289 3.0 10.0 0.00 0.00 0.00 45 1012.3
20260905072904 58 291 3.0 10.0 0.00 0.00 0.00 45 1012.3
20260905072804 58 288 3.0 10.0 0.00 0.00 0.00 47 1012.2
20260905072703 57 282 5.0 10.0 0.00 0.00 0.00 48 1012.3
20260905072604 57 305 5.0 10.0 0.00 0.00 0.00 48 1012.2
20260905072504 57 348 5.0 10.0 0.00 0.00 0.00 48 1012.3
20260905072404 57 22 5.0 10.0 0.00 0.00 0.00 48 1012.3
20260905072306 57 37 5.0 10.0 0.00 0.00 0.00 48 1012.1
20260905072203 56 37 4.0 10.0 0.00 0.00 0.00 48 1012.2
20260905072103 56 28 2.0 7.0 0.00 0.00 0.00 47 1012.2
20260905072003 56 37 4.0 7.0 0.00 0.00 0.00 47 1012.2
20260905071904 56 55 2.0 4.0 0.00 0.00 0.00 46 1012.2
20260905071804 56 70 3.0 4.0 0.00 0.00 0.00 45 1012.2
20260905071704 56 321 2.0 4.0 0.00 0.00 0.00 45 1012.1
20260905071603 56 291 1.0 3.0 0.00 0.00 0.00 45 1012.2
20260905071504 56 296 1.0 3.0 0.00 0.00 0.00 45 1012.2
20260905071404 56 0 0.0 3.0 0.00 0.00 0.00 44 1012.3
20260905071304 56 0 0.0 3.0 0.00 0.00 0.00 44 1012.2
20260905071203 56 0 0.0 3.0 0.00 0.00 0.00 44 1012.1
20260905071104 56 0 0.0 3.0 0.00 0.00 0.00 44 1012.2
20260905071004 56 0 0.0 3.0 0.00 0.00 0.00 44 1012.2
20260905070904 56 0 0.0 3.0 0.00 0.00 0.00 44 1012.2
20260905070804 56 0 0.0 3.0 0.00 0.00 0.00 44 1012.3
20260905070704 56 299 2.0 3.0 0.00 0.00 0.00 43 1012.2
20260905070604 56 296 2.0 3.0 0.00 0.00 0.00 43 1012.1
20260905070007 56 274 1.0 4.0 0.00 0.00 0.00 43 1011.9
20260905065904 56 273 2.0 4.0 0.00 0.00 0.00 43 1012.1
20260905065803 56 278 2.0 4.0 0.00 0.00 0.00 43 1012.0
20260905065704 56 0 0.0 4.0 0.00 0.00 0.00 43 1012.0
20260905065603 56 0 0.0 5.0 0.00 0.00 0.00 43 1012.1
20260905065504 56 304 1.0 5.0 0.00 0.00 0.00 43 1012.0
20260905065404 56 311 2.0 5.0 0.00 0.00 0.00 42 1012.1
20260905065306 56 319 1.0 5.0 0.00 0.00 0.00 42 1012.1
20260905065203 56 325 1.0 5.0 0.00 0.00 0.00 42 1012.0
20260905065104 56 325 2.0 5.0 0.00 0.00 0.00 42 1011.9
20260905065004 57 333 3.0 5.0 0.00 0.00 0.00 42 1012.0
20260905064903 57 345 3.0 5.0 0.00 0.00 0.00 41 1011.9
20260905064803 57 1 3.0 5.0 0.00 0.00 0.00 41 1011.9
20260905064704 57 18 2.0 5.0 0.00 0.00 0.00 41 1012.0
20260905064604 57 43 2.0 4.0 0.00 0.00 0.00 39 1011.9
20260905064504 58 97 2.0 3.0 0.00 0.00 0.00 39 1011.9
20260905064403 58 154 2.0 3.0 0.00 0.00 0.00 40 1011.9
20260905064304 58 176 2.0 3.0 0.00 0.00 0.00 40 1011.8
20260905064204 58 0 0.0 2.0 0.00 0.00 0.00 40 1011.8
20260905064104 58 0 0.0 2.0 0.00 0.00 0.00 39 1011.8
20260905064003 59 0 0.0 4.0 0.00 0.00 0.00 39 1011.8
20260905063904 59 0 0.0 4.0 0.00 0.00 0.00 38 1011.9
20260905063404 59 0 0.0 4.0 0.00 0.00 0.00 38 1011.7
20260905063304 59 0 0.0 4.0 0.00 0.00 0.00 38 1011.8
20260905063204 59 224 1.0 4.0 0.00 0.00 0.00 38 1011.6
20260905063103 60 219 2.0 4.0 0.00 0.00 0.00 38 1011.6
20260905063004 60 214 2.0 4.0 0.00 0.00 0.00 38 1011.6
20260905062904 60 207 2.0 4.0 0.00 0.00 0.00 38 1011.6
20260905062803 60 198 2.0 4.0 0.00 0.00 0.00 38 1011.5
20260905062306 60 131 2.0 4.0 0.00 0.00 0.00 37 1011.5
20260905062204 60 0 0.0 4.0 0.00 0.00 0.00 37 1011.5
20260905062103 60 0 0.0 5.0 0.00 0.00 0.00 37 1011.5
20260905062004 60 0 0.0 7.0 0.00 0.00 0.00 37 1011.6
20260905061904 60 0 0.0 9.0 0.00 0.00 0.00 37 1011.5
20260905061804 60 0 0.0 9.0 0.00 0.00 0.00 37 1011.5
20260905061703 60 0 0.0 9.0 0.00 0.00 0.00 37 1011.5
20260905061604 60 0 0.0 11.0 0.00 0.00 0.00 37 1011.4
20260905061504 60 0 0.0 11.0 0.00 0.00 0.00 37 1011.4
20260905061405 60 80 2.0 11.0 0.00 0.00 0.00 37 1011.4
20260905061303 60 77 2.0 11.0 0.00 0.00 0.00 37 1011.3
20260905061204 60 77 4.0 11.0 0.00 0.00 0.00 37 1011.4
20260905061103 60 77 5.0 11.0 0.00 0.00 0.00 37 1011.4
20260905061004 60 80 3.0 11.0 0.00 0.00 0.00 37 1011.3
20260905060904 60 75 4.0 11.0 0.00 0.00 0.00 38 1011.3
20260905060803 60 82 7.0 11.0 0.00 0.00 0.00 38 1011.2
20260905060704 60 84 8.0 11.0 0.00 0.00 0.00 38 1011.2
20260905060604 60 95 2.0 10.0 0.00 0.00 0.00 38 1011.2
20260905060503 60 110 4.0 10.0 0.00 0.00 0.00 38 1011.2
20260905060404 60 111 2.0 8.0 0.00 0.00 0.00 37 1011.2
20260905060304 60 109 2.0 8.0 0.00 0.00 0.00 38 1011.3
20260905060203 60 108 2.0 8.0 0.00 0.00 0.00 37 1011.3
20260905060104 60 112 2.0 8.0 0.00 0.00 0.00 37 1011.2
20260905060004 60 115 2.0 8.0 0.00 0.00 0.00 37 1011.1
20260905055904 60 114 4.0 8.0 0.00 0.00 0.00 37 1011.1
20260905055803 60 110 3.0 8.0 0.00 0.00 0.00 37 1011.1
20260905055704 60 112 2.0 8.0 0.00 0.00 0.00 37 1011.1
20260905055604 60 105 2.0 8.0 0.00 0.00 0.00 37 1010.9
20260905055504 60 100 2.0 8.0 0.00 0.00 0.00 37 1010.9
20260905055403 60 95 4.0 7.0 0.00 0.00 0.00 37 1011.0
20260905055306 60 102 2.0 6.0 0.00 0.00 0.00 37 1011.0
20260905055204 60 0 0.0 7.0 0.00 0.00 0.00 37 1010.9
20260905055104 60 97 2.0 7.0 0.00 0.00 0.00 37 1010.9
20260905055003 60 94 2.0 7.0 0.00 0.00 0.00 37 1011.0
20260905054904 60 94 1.0 7.0 0.00 0.00 0.00 37 1010.9
20260905054804 60 94 1.0 8.0 0.00 0.00 0.00 37 1010.9
20260905054703 60 90 3.0 8.0 0.00 0.00 0.00 37 1011.0
20260905054604 60 90 4.0 8.0 0.00 0.00 0.00 37 1010.9
20260905054504 60 90 4.0 8.0 0.00 0.00 0.00 37 1010.9
20260905054403 60 90 1.0 8.0 0.00 0.00 0.00 36 1010.9
20260905054303 60 90 3.0 8.0 0.00 0.00 0.00 37 1011.0
20260905054204 61 90 4.0 8.0 0.00 0.00 0.00 37 1010.8
20260905054104 61 94 4.0 8.0 0.00 0.00 0.00 36 1010.8
20260905054003 61 99 4.0 8.0 0.00 0.00 0.00 36 1010.8
20260905053904 61 99 4.0 8.0 0.00 0.00 0.00 36 1010.8
20260905053404 61 109 2.0 11.0 0.00 0.00 0.00 35 1010.9
20260905053304 61 105 2.0 11.0 0.00 0.00 0.00 35 1010.8
20260905053204 62 102 2.0 11.0 0.00 0.00 0.00 35 1010.6
20260905053104 62 99 2.0 11.0 0.00 0.00 0.00 35 1010.6
20260905053004 62 97 2.0 11.0 0.00 0.00 0.00 34 1010.7
20260905052903 62 97 4.0 11.0 0.00 0.00 0.00 34 1010.6
20260905052804 62 98 4.0 11.0 0.00 0.00 0.00 35 1010.7
20260905052703 62 93 2.0 11.0 0.00 0.00 0.00 34 1010.7
20260905052604 62 91 2.0 11.0 0.00 0.00 0.00 34 1010.6
20260905052504 62 87 4.0 11.0 0.00 0.00 0.00 34 1010.7
20260905052404 62 87 6.0 10.0 0.00 0.00 0.00 34 1010.5
20260905052306 62 87 2.0 6.0 0.00 0.00 0.00 32 1010.6
20260905052203 62 87 2.0 6.0 0.00 0.00 0.00 32 1010.6
20260905052104 62 89 2.0 6.0 0.00 0.00 0.00 32 1010.5
20260905052004 62 90 2.0 7.0 0.00 0.00 0.00 32 1010.6
20260905051903 62 90 2.0 8.0 0.00 0.00 0.00 32 1010.6
20260905051803 62 90 2.0 8.0 0.00 0.00 0.00 32 1010.6
20260905051704 62 90 2.0 8.0 0.00 0.00 0.00 32 1010.5
20260905051604 62 92 3.0 8.0 0.00 0.00 0.00 32 1010.5
20260905051503 62 96 2.0 8.0 0.00 0.00 0.00 32 1010.6
20260905051404 62 101 4.0 8.0 0.00 0.00 0.00 32 1010.5
20260905051304 62 111 2.0 8.0 0.00 0.00 0.00 31 1010.6
20260905051204 63 127 1.0 8.0 0.00 0.00 0.00 30 1010.5
20260905051004 63 159 4.0 8.0 0.00 0.00 0.00 29 1010.5
20260905050903 63 175 5.0 8.0 0.00 0.00 0.00 29 1010.5
20260905050803 64 200 3.0 8.0 0.00 0.00 0.00 28 1010.4
20260905050704 64 213 4.0 8.0 0.00 0.00 0.00 27 1010.4
20260905050004 65 235 3.0 10.0 0.00 0.00 0.00 26 1010.3
20260905045903 65 236 2.0 10.0 0.00 0.00 0.00 26 1010.4
20260905045803 65 227 2.0 10.0 0.00 0.00 0.00 26 1010.3
20260905045704 65 226 2.0 10.0 0.00 0.00 0.00 26 1010.4
20260905045604 65 228 5.0 10.0 0.00 0.00 0.00 26 1010.3
20260905045503 65 219 4.0 10.0 0.00 0.00 0.00 25 1010.2
20260905045404 65 213 6.0 10.0 0.00 0.00 0.00 26 1010.3
20260905045306 65 222 6.0 10.0 0.00 0.00 0.00 26 1010.4
20260905045204 65 219 2.0 14.0 0.00 0.00 0.00 26 1010.1
20260905045104 65 221 2.0 14.0 0.00 0.00 0.00 26 1010.2
20260905045004 65 222 2.0 14.0 0.00 0.00 0.00 26 1010.2
20260905044903 65 231 2.0 14.0 0.00 0.00 0.00 26 1010.1
20260905044804 65 244 2.0 14.0 0.00 0.00 0.00 26 1010.2
20260905044704 65 262 2.0 14.0 0.00 0.00 0.00 26 1010.2
20260905044604 65 256 3.0 14.0 0.00 0.00 0.00 26 1010.2
20260905044504 65 258 6.0 14.0 0.00 0.00 0.00 26 1010.1
20260905044403 65 263 6.0 14.0 0.00 0.00 0.00 26 1010.1
20260905044304 65 252 8.0 14.0 0.00 0.00 0.00 26 1010.0
20260905044204 64 262 5.0 11.0 0.00 0.00 0.00 26 1010.1
20260905044103 64 263 7.0 11.0 0.00 0.00 0.00 26 1010.1
20260905044003 64 270 4.0 9.0 0.00 0.00 0.00 27 1010.0
20260905043904 64 286 4.0 9.0 0.00 0.00 0.00 27 1010.0
20260905043804 64 276 6.0 9.0 0.00 0.00 0.00 27 1009.9
20260905043704 64 247 4.0 9.0 0.00 0.00 0.00 27 1009.9
20260905043603 64 266 4.0 9.0 0.00 0.00 0.00 27 1009.9
20260905043504 65 293 4.0 8.0 0.00 0.00 0.00 27 1009.9
20260905043404 65 326 4.0 9.0 0.00 0.00 0.00 27 1010.0
20260905043304 65 342 2.0 9.0 0.00 0.00 0.00 27 1009.9
20260905043204 65 336 2.0 9.0 0.00 0.00 0.00 27 1009.8
20260905043104 65 319 1.0 9.0 0.00 0.00 0.00 27 1010.0
20260905043003 65 316 1.0 9.0 0.00 0.00 0.00 27 1010.0
20260905042903 65 309 2.0 9.0 0.00 0.00 0.00 27 1009.9
20260905042804 65 296 2.0 9.0 0.00 0.00 0.00 26 1009.9
20260905042704 65 291 2.0 9.0 0.00 0.00 0.00 26 1009.8
20260905042603 65 277 4.0 9.0 0.00 0.00 0.00 26 1009.9